2016 Cux-Wetter.de -Die Nutzung der Wetterdaten nur mit ausdrcklicher Genehmigung
Wetterdaten: Sonntag, 26.06.2016
Datum Zeit Temp. A. Feuchte A. Luftdruck Regen Wind Richtung Richtung Sonnenschein Solar Taupunkt Windchill Windben
26.06.2016 00:00 14,6 C 96 % 1011,3 hPa 0,0 l/m 12,8 km/h (3 Bft) W-SW 253 0 min 0 W/m 14,0 C 11,5 C 20,9 km/h (4 Bft)
26.06.2016 00:03 14,6 C 96 % 1011,5 hPa 0,2 l/m 9,2 km/h (2 Bft) N-NW 336 0 min 0 W/m 14,0 C 13,1 C 17,7 km/h (3 Bft)
26.06.2016 00:06 14,6 C 96 % 1011,6 hPa 0,0 l/m 12,6 km/h (3 Bft) W-NW 297 0 min 0 W/m 14,0 C 11,6 C 20,9 km/h (4 Bft)
26.06.2016 00:09 14,6 C 96 % 1011,7 hPa 0,0 l/m 14,6 km/h (3 Bft) NW 308 0 min 0 W/m 14,0 C 10,8 C 24,1 km/h (4 Bft)
26.06.2016 00:12 14,6 C 96 % 1011,8 hPa 0,0 l/m 12,1 km/h (2 Bft) W-SW 258 0 min 0 W/m 14,0 C 11,8 C 20,9 km/h (4 Bft)
26.06.2016 00:15 14,6 C 96 % 1011,8 hPa 0,2 l/m 10,3 km/h (2 Bft) NW 320 0 min 0 W/m 14,0 C 12,5 C 19,3 km/h (3 Bft)
26.06.2016 00:18 14,6 C 96 % 1011,9 hPa 0,0 l/m 11,4 km/h (2 Bft) NW 323 0 min 0 W/m 14,0 C 12,1 C 20,9 km/h (4 Bft)
26.06.2016 00:21 14,6 C 96 % 1011,7 hPa 0,0 l/m 10,5 km/h (2 Bft) NW 315 0 min 0 W/m 14,0 C 12,4 C 17,7 km/h (3 Bft)
26.06.2016 00:24 14,7 C 96 % 1011,7 hPa 0,0 l/m 9,0 km/h (2 Bft) NW 311 0 min 0 W/m 14,1 C 13,3 C 22,5 km/h (4 Bft)
26.06.2016 00:27 14,7 C 96 % 1011,7 hPa 0,0 l/m 10,5 km/h (2 Bft) NW 320 0 min 0 W/m 14,1 C 12,6 C 20,9 km/h (4 Bft)
26.06.2016 00:30 14,6 C 96 % 1011,7 hPa 0,0 l/m 9,4 km/h (2 Bft) W-NW 289 0 min 0 W/m 14,0 C 13,0 C 19,3 km/h (3 Bft)
26.06.2016 00:33 14,6 C 96 % 1011,8 hPa 0,0 l/m 7,5 km/h (2 Bft) NW 319 0 min 0 W/m 14,0 C 14,0 C 19,3 km/h (3 Bft)
26.06.2016 00:36 14,6 C 96 % 1011,8 hPa 0,0 l/m 10,2 km/h (2 Bft) W 259 0 min 0 W/m 14,0 C 12,6 C 19,3 km/h (3 Bft)
26.06.2016 00:39 14,6 C 96 % 1011,8 hPa 0,2 l/m 6,2 km/h (2 Bft) W-NW 283 0 min 0 W/m 14,0 C 14,6 C 17,7 km/h (3 Bft)
26.06.2016 00:42 14,6 C 96 % 1011,7 hPa 0,0 l/m 11,2 km/h (2 Bft) W-NW 297 0 min 0 W/m 14,0 C 12,1 C 17,7 km/h (3 Bft)
26.06.2016 00:45 14,6 C 96 % 1011,6 hPa 0,0 l/m 9,6 km/h (2 Bft) W-NW 291 0 min 0 W/m 14,0 C 12,9 C 17,7 km/h (3 Bft)
26.06.2016 00:48 14,6 C 96 % 1011,6 hPa 0,0 l/m 10,5 km/h (2 Bft) W-NW 288 0 min 0 W/m 14,0 C 12,4 C 24,1 km/h (4 Bft)
26.06.2016 00:51 14,6 C 96 % 1011,5 hPa 0,0 l/m 4,7 km/h (1 Bft) NW 318 0 min 0 W/m 14,0 C 14,6 C 12,9 km/h (3 Bft)
26.06.2016 00:54 14,7 C 96 % 1011,6 hPa 0,0 l/m 8,4 km/h (2 Bft) N-NW 327 0 min 0 W/m 14,1 C 13,6 C 14,5 km/h (3 Bft)
26.06.2016 00:57 14,7 C 96 % 1011,6 hPa 0,0 l/m 11,3 km/h (2 Bft) NW 326 0 min 0 W/m 14,1 C 12,2 C 20,9 km/h (4 Bft)
26.06.2016 01:00 14,7 C 96 % 1011,6 hPa 0,0 l/m 9,2 km/h (2 Bft) W-NW 300 0 min 0 W/m 14,1 C 13,2 C 19,3 km/h (3 Bft)
26.06.2016 01:03 14,7 C 96 % 1011,7 hPa 0,0 l/m 8,3 km/h (2 Bft) W 277 0 min 0 W/m 14,1 C 13,6 C 14,5 km/h (3 Bft)
26.06.2016 01:06 14,7 C 96 % 1011,6 hPa 0,0 l/m 5,6 km/h (2 Bft) W 278 0 min 0 W/m 14,1 C 14,7 C 14,5 km/h (3 Bft)
26.06.2016 01:09 14,7 C 96 % 1011,6 hPa 0,2 l/m 6,8 km/h (2 Bft) NW 305 0 min 0 W/m 14,1 C 14,5 C 14,5 km/h (3 Bft)
26.06.2016 01:12 14,6 C 96 % 1011,5 hPa 0,0 l/m 8,8 km/h (2 Bft) W 275 0 min 0 W/m 14,0 C 13,3 C 19,3 km/h (3 Bft)
26.06.2016 01:15 14,6 C 96 % 1011,5 hPa 0,0 l/m 10,0 km/h (2 Bft) W 274 0 min 0 W/m 14,0 C 12,7 C 19,3 km/h (3 Bft)
26.06.2016 01:18 14,6 C 96 % 1011,6 hPa 0,0 l/m 9,5 km/h (2 Bft) SW 233 0 min 0 W/m 14,0 C 12,9 C 19,3 km/h (3 Bft)
26.06.2016 01:21 14,6 C 96 % 1011,6 hPa 0,0 l/m 9,7 km/h (2 Bft) W 280 0 min 0 W/m 14,0 C 12,8 C 16,1 km/h (3 Bft)
26.06.2016 01:24 14,6 C 96 % 1011,6 hPa 0,0 l/m 6,8 km/h (2 Bft) W-SW 238 0 min 0 W/m 14,0 C 14,4 C 14,5 km/h (3 Bft)
26.06.2016 01:27 14,6 C 96 % 1011,6 hPa 0,0 l/m 7,5 km/h (2 Bft) W-NW 296 0 min 0 W/m 14,0 C 14,0 C 14,5 km/h (3 Bft)
26.06.2016 01:30 14,6 C 95 % 1011,6 hPa 0,0 l/m 10,5 km/h (2 Bft) SW 232 0 min 0 W/m 13,8 C 12,4 C 19,3 km/h (3 Bft)
26.06.2016 01:33 14,5 C 95 % 1011,6 hPa 0,0 l/m 9,0 km/h (2 Bft) W 261 0 min 0 W/m 13,7 C 13,1 C 16,1 km/h (3 Bft)
26.06.2016 01:36 14,5 C 95 % 1011,6 hPa 0,0 l/m 10,5 km/h (2 Bft) NW 310 0 min 0 W/m 13,7 C 12,3 C 20,9 km/h (4 Bft)
26.06.2016 01:39 14,5 C 95 % 1011,6 hPa 0,0 l/m 8,5 km/h (2 Bft) W 263 0 min 0 W/m 13,7 C 13,3 C 16,1 km/h (3 Bft)
26.06.2016 01:42 14,5 C 95 % 1011,6 hPa 0,0 l/m 6,6 km/h (2 Bft) W 276 0 min 0 W/m 13,7 C 14,4 C 14,5 km/h (3 Bft)
26.06.2016 01:45 14,6 C 95 % 1011,6 hPa 0,0 l/m 9,4 km/h (2 Bft) W-NW 288 0 min 0 W/m 13,8 C 13,0 C 17,7 km/h (3 Bft)
26.06.2016 01:48 14,6 C 95 % 1011,6 hPa 0,0 l/m 9,7 km/h (2 Bft) W-SW 252 0 min 0 W/m 13,8 C 12,8 C 17,7 km/h (3 Bft)
26.06.2016 01:51 14,6 C 95 % 1011,5 hPa 0,0 l/m 9,6 km/h (2 Bft) W 271 0 min 0 W/m 13,8 C 12,9 C 20,9 km/h (4 Bft)
26.06.2016 01:54 14,6 C 95 % 1011,5 hPa 0,0 l/m 9,6 km/h (2 Bft) NW 304 0 min 0 W/m 13,8 C 12,9 C 17,7 km/h (3 Bft)
26.06.2016 01:57 14,7 C 95 % 1011,5 hPa 0,0 l/m 7,8 km/h (2 Bft) W 273 0 min 0 W/m 13,9 C 13,9 C 14,5 km/h (3 Bft)
26.06.2016 02:00 14,7 C 95 % 1011,5 hPa 0,0 l/m 10,5 km/h (2 Bft) W 267 0 min 0 W/m 13,9 C 12,6 C 17,7 km/h (3 Bft)
26.06.2016 02:03 14,6 C 95 % 1011,5 hPa 0,0 l/m 11,7 km/h (2 Bft) W 277 0 min 0 W/m 13,8 C 11,9 C 22,5 km/h (4 Bft)
26.06.2016 02:06 14,6 C 95 % 1011,5 hPa 0,0 l/m 12,0 km/h (2 Bft) W 278 0 min 0 W/m 13,8 C 11,8 C 19,3 km/h (3 Bft)
26.06.2016 02:09 14,6 C 95 % 1011,5 hPa 0,0 l/m 14,4 km/h (3 Bft) W 277 0 min 0 W/m 13,8 C 10,9 C 25,7 km/h (4 Bft)
26.06.2016 02:12 14,6 C 95 % 1011,4 hPa 0,0 l/m 15,6 km/h (3 Bft) S-SW 202 0 min 0 W/m 13,8 C 10,5 C 24,1 km/h (4 Bft)
26.06.2016 02:15 14,6 C 95 % 1011,3 hPa 0,0 l/m 10,5 km/h (2 Bft) W-NW 298 0 min 0 W/m 13,8 C 12,4 C 20,9 km/h (4 Bft)
26.06.2016 02:18 14,6 C 95 % 1011,3 hPa 0,0 l/m 11,0 km/h (2 Bft) W 265 0 min 0 W/m 13,8 C 12,2 C 20,9 km/h (4 Bft)
26.06.2016 02:21 14,6 C 95 % 1011,3 hPa 0,0 l/m 10,9 km/h (2 Bft) W 271 0 min 0 W/m 13,8 C 12,3 C 24,1 km/h (4 Bft)
26.06.2016 02:24 14,6 C 94 % 1011,4 hPa 0,0 l/m 10,9 km/h (2 Bft) W 281 0 min 0 W/m 13,6 C 12,3 C 24,1 km/h (4 Bft)
26.06.2016 02:27 14,4 C 94 % 1011,3 hPa 0,0 l/m 13,8 km/h (3 Bft) N-NW 340 0 min 0 W/m 13,4 C 10,9 C 25,7 km/h (4 Bft)
26.06.2016 02:30 14,4 C 93 % 1011,4 hPa 0,0 l/m 15,7 km/h (3 Bft) W 279 0 min 0 W/m 13,3 C 10,2 C 27,4 km/h (5 Bft)
26.06.2016 02:33 14,3 C 93 % 1011,4 hPa 0,0 l/m 12,3 km/h (2 Bft) W-SW 243 0 min 0 W/m 13,2 C 11,3 C 20,9 km/h (4 Bft)
26.06.2016 02:36 14,3 C 93 % 1011,4 hPa 0,0 l/m 10,9 km/h (2 Bft) W-SW 254 0 min 0 W/m 13,2 C 11,9 C 20,9 km/h (4 Bft)
26.06.2016 02:39 14,4 C 93 % 1011,4 hPa 0,0 l/m 14,9 km/h (3 Bft) W 269 0 min 0 W/m 13,3 C 10,5 C 29,0 km/h (5 Bft)
26.06.2016 02:42 14,4 C 93 % 1011,4 hPa 0,0 l/m 15,0 km/h (3 Bft) W-SW 250 0 min 0 W/m 13,3 C 10,5 C 27,4 km/h (5 Bft)
26.06.2016 02:45 14,4 C 93 % 1011,4 hPa 0,0 l/m 14,4 km/h (3 Bft) W-NW 289 0 min 0 W/m 13,3 C 10,7 C 27,4 km/h (5 Bft)
26.06.2016 02:48 14,4 C 93 % 1011,4 hPa 0,0 l/m 11,9 km/h (2 Bft) W 271 0 min 0 W/m 13,3 C 11,6 C 20,9 km/h (4 Bft)
26.06.2016 02:51 14,4 C 93 % 1011,5 hPa 0,0 l/m 13,1 km/h (3 Bft) W-SW 239 0 min 0 W/m 13,3 C 11,1 C 20,9 km/h (4 Bft)
26.06.2016 02:54 14,4 C 93 % 1011,6 hPa 0,0 l/m 14,2 km/h (3 Bft) W 274 0 min 0 W/m 13,3 C 10,7 C 25,7 km/h (4 Bft)
26.06.2016 02:57 14,4 C 93 % 1011,6 hPa 0,0 l/m 15,2 km/h (3 Bft) W-SW 246 0 min 0 W/m 13,3 C 10,4 C 24,1 km/h (4 Bft)
26.06.2016 03:00 14,4 C 93 % 1011,6 hPa 0,0 l/m 16,4 km/h (3 Bft) W 278 0 min 0 W/m 13,3 C 10,0 C 25,7 km/h (4 Bft)
26.06.2016 03:03 14,4 C 93 % 1011,6 hPa 0,0 l/m 14,4 km/h (3 Bft) NW 309 0 min 0 W/m 13,3 C 10,7 C 22,5 km/h (4 Bft)
26.06.2016 03:06 14,4 C 93 % 1011,5 hPa 0,0 l/m 12,7 km/h (3 Bft) W-NW 290 0 min 0 W/m 13,3 C 11,3 C 20,9 km/h (4 Bft)
26.06.2016 03:09 14,5 C 93 % 1011,6 hPa 0,0 l/m 12,4 km/h (2 Bft) W 260 0 min 0 W/m 13,4 C 11,5 C 24,1 km/h (4 Bft)
26.06.2016 03:12 14,5 C 93 % 1011,8 hPa 0,0 l/m 14,0 km/h (3 Bft) W-SW 248 0 min 0 W/m 13,4 C 10,9 C 24,1 km/h (4 Bft)
26.06.2016 03:15 14,5 C 93 % 1011,7 hPa 0,0 l/m 11,0 km/h (2 Bft) W-SW 237 0 min 0 W/m 13,4 C 12,1 C 19,3 km/h (3 Bft)
26.06.2016 03:18 14,5 C 93 % 1011,6 hPa 0,0 l/m 12,5 km/h (2 Bft) SW 227 0 min 0 W/m 13,4 C 11,5 C 20,9 km/h (4 Bft)
26.06.2016 03:21 14,6 C 92 % 1011,6 hPa 0,0 l/m 13,9 km/h (3 Bft) W-NW 299 0 min 0 W/m 13,3 C 11,1 C 22,5 km/h (4 Bft)
26.06.2016 03:24 14,5 C 92 % 1011,6 hPa 0,0 l/m 9,9 km/h (2 Bft) W-SW 257 0 min 0 W/m 13,2 C 12,6 C 22,5 km/h (4 Bft)
26.06.2016 03:27 14,4 C 92 % 1011,6 hPa 0,0 l/m 14,8 km/h (3 Bft) W 271 0 min 0 W/m 13,1 C 10,5 C 24,1 km/h (4 Bft)
26.06.2016 03:30 14,4 C 92 % 1011,6 hPa 0,0 l/m 8,2 km/h (2 Bft) W 281 0 min 0 W/m 13,1 C 13,4 C 16,1 km/h (3 Bft)
26.06.2016 03:33 14,5 C 92 % 1011,8 hPa 0,0 l/m 10,7 km/h (2 Bft) W 264 0 min 0 W/m 13,2 C 12,2 C 19,3 km/h (3 Bft)
26.06.2016 03:36 14,6 C 92 % 1011,8 hPa 0,0 l/m 12,5 km/h (2 Bft) NW 323 0 min 0 W/m 13,3 C 11,6 C 24,1 km/h (4 Bft)
26.06.2016 03:39 14,6 C 92 % 1011,8 hPa 0,0 l/m 10,9 km/h (2 Bft) W 260 0 min 0 W/m 13,3 C 12,3 C 20,9 km/h (4 Bft)
26.06.2016 03:42 14,6 C 92 % 1011,8 hPa 0,0 l/m 12,8 km/h (3 Bft) W 260 0 min 0 W/m 13,3 C 11,5 C 20,9 km/h (4 Bft)
26.06.2016 03:45 14,6 C 92 % 1011,8 hPa 0,0 l/m 11,5 km/h (2 Bft) W-NW 284 0 min 0 W/m 13,3 C 12,0 C 20,9 km/h (4 Bft)
26.06.2016 03:48 14,7 C 92 % 1011,8 hPa 0,0 l/m 12,4 km/h (2 Bft) W 265 0 min 0 W/m 13,4 C 11,8 C 19,3 km/h (3 Bft)
26.06.2016 03:51 14,7 C 92 % 1011,8 hPa 0,0 l/m 12,1 km/h (2 Bft) W-NW 298 0 min 0 W/m 13,4 C 11,9 C 20,9 km/h (4 Bft)
26.06.2016 03:54 14,8 C 91 % 1011,8 hPa 0,0 l/m 12,9 km/h (3 Bft) S-SW 212 0 min 0 W/m 13,3 C 11,7 C 24,1 km/h (4 Bft)
26.06.2016 03:57 14,7 C 91 % 1011,8 hPa 0,0 l/m 11,5 km/h (2 Bft) W 270 0 min 0 W/m 13,2 C 12,1 C 27,4 km/h (5 Bft)
26.06.2016 04:00 14,7 C 91 % 1011,8 hPa 0,0 l/m 14,9 km/h (3 Bft) W 278 0 min 0 W/m 13,2 C 10,9 C 22,5 km/h (4 Bft)
26.06.2016 04:03 14,8 C 91 % 1011,8 hPa 0,0 l/m 11,5 km/h (2 Bft) SW 233 0 min 0 W/m 13,3 C 12,2 C 17,7 km/h (3 Bft)
26.06.2016 04:06 14,8 C 91 % 1011,8 hPa 0,0 l/m 12,1 km/h (2 Bft) W-SW 245 0 min 0 W/m 13,3 C 12,0 C 22,5 km/h (4 Bft)
26.06.2016 04:09 14,9 C 91 % 1011,7 hPa 0,0 l/m 11,5 km/h (2 Bft) W 271 0 min 0 W/m 13,4 C 12,4 C 17,7 km/h (3 Bft)
26.06.2016 04:12 14,9 C 91 % 1011,7 hPa 0,0 l/m 6,9 km/h (2 Bft) W 264 0 min 0 W/m 13,4 C 14,6 C 14,5 km/h (3 Bft)
26.06.2016 04:15 14,9 C 91 % 1011,7 hPa 0,0 l/m 12,0 km/h (2 Bft) W 269 0 min 0 W/m 13,4 C 12,2 C 17,7 km/h (3 Bft)
26.06.2016 04:18 14,9 C 91 % 1011,8 hPa 0,0 l/m 10,2 km/h (2 Bft) SW 223 0 min 0 W/m 13,4 C 12,9 C 17,7 km/h (3 Bft)
26.06.2016 04:21 14,9 C 91 % 1011,8 hPa 0,0 l/m 8,9 km/h (2 Bft) W 268 0 min 0 W/m 13,4 C 13,5 C 17,7 km/h (3 Bft)
26.06.2016 04:24 14,9 C 91 % 1011,8 hPa 0,0 l/m 13,2 km/h (3 Bft) W 277 0 min 0 W/m 13,4 C 11,7 C 19,3 km/h (3 Bft)
26.06.2016 04:27 15,0 C 91 % 1011,8 hPa 0,0 l/m 11,6 km/h (2 Bft) W 265 0 min 0 W/m 13,5 C 12,4 C 19,3 km/h (3 Bft)
26.06.2016 04:30 15,0 C 92 % 1011,8 hPa 0,0 l/m 11,9 km/h (2 Bft) W 271 0 min 0 W/m 13,7 C 12,3 C 19,3 km/h (3 Bft)
26.06.2016 04:33 15,1 C 92 % 1011,9 hPa 0,0 l/m 8,2 km/h (2 Bft) W 270 0 min 0 W/m 13,8 C 14,1 C 19,3 km/h (3 Bft)
26.06.2016 04:36 15,0 C 91 % 1011,8 hPa 0,0 l/m 11,1 km/h (2 Bft) W 267 0 min 0 W/m 13,5 C 12,6 C 19,3 km/h (3 Bft)
26.06.2016 04:39 15,0 C 91 % 1011,8 hPa 0,0 l/m 8,4 km/h (2 Bft) W-SW 241 0 min 0 W/m 13,5 C 13,9 C 16,1 km/h (3 Bft)
26.06.2016 04:42 15,0 C 91 % 1011,8 hPa 0,0 l/m 11,9 km/h (2 Bft) W 269 0 min 0 W/m 13,5 C 12,3 C 24,1 km/h (4 Bft)
26.06.2016 04:45 15,0 C 92 % 1011,8 hPa 0,0 l/m 8,6 km/h (2 Bft) W-NW 288 0 min 0 W/m 13,7 C 13,8 C 14,5 km/h (3 Bft)
26.06.2016 04:48 15,0 C 91 % 1011,8 hPa 0,0 l/m 8,7 km/h (2 Bft) W-NW 288 0 min 0 W/m 13,5 C 13,7 C 17,7 km/h (3 Bft)
26.06.2016 04:51 15,0 C 91 % 1011,8 hPa 0,0 l/m 9,3 km/h (2 Bft) W 259 0 min 0 W/m 13,5 C 13,4 C 16,1 km/h (3 Bft)
26.06.2016 04:54 15,0 C 91 % 1011,8 hPa 0,0 l/m 7,2 km/h (2 Bft) W-SW 258 0 min 0 W/m 13,5 C 14,5 C 14,5 km/h (3 Bft)
26.06.2016 04:57 15,1 C 91 % 1011,8 hPa 0,0 l/m 9,4 km/h (2 Bft) W 260 0 min 0 W/m 13,6 C 13,5 C 16,1 km/h (3 Bft)
26.06.2016 05:00 15,1 C 91 % 1011,8 hPa 0,0 l/m 6,9 km/h (2 Bft) W 270 0 min 0 W/m 13,6 C 14,8 C 12,9 km/h (3 Bft)
26.06.2016 05:03 15,1 C 91 % 1011,9 hPa 0,0 l/m 6,9 km/h (2 Bft) W-SW 256 0 min 0 W/m 13,6 C 14,8 C 12,9 km/h (3 Bft)
26.06.2016 05:06 15,2 C 91 % 1011,9 hPa 0,0 l/m 7,1 km/h (2 Bft) W-SW 238 0 min 0 W/m 13,7 C 14,8 C 12,9 km/h (3 Bft)
26.06.2016 05:09 15,2 C 91 % 1011,8 hPa 0,0 l/m 6,6 km/h (2 Bft) W 272 0 min 0 W/m 13,7 C 15,1 C 12,9 km/h (3 Bft)
26.06.2016 05:12 15,2 C 91 % 1011,8 hPa 0,0 l/m 7,6 km/h (2 Bft) W 271 0 min 0 W/m 13,7 C 14,5 C 14,5 km/h (3 Bft)
26.06.2016 05:15 15,2 C 91 % 1011,8 hPa 0,0 l/m 5,9 km/h (2 Bft) W-SW 248 0 min 0 W/m 13,7 C 15,2 C 14,5 km/h (3 Bft)
26.06.2016 05:18 15,2 C 91 % 1011,7 hPa 0,0 l/m 9,0 km/h (2 Bft) W-SW 250 0 min 0 W/m 13,7 C 13,8 C 16,1 km/h (3 Bft)
26.06.2016 05:21 15,2 C 91 % 1011,8 hPa 0,0 l/m 8,0 km/h (2 Bft) W-SW 251 0 min 5 W/m 13,7 C 14,3 C 19,3 km/h (3 Bft)
26.06.2016 05:24 15,2 C 91 % 1011,9 hPa 0,0 l/m 7,6 km/h (2 Bft) W 280 0 min 7 W/m 13,7 C 14,5 C 14,5 km/h (3 Bft)
26.06.2016 05:27 15,2 C 91 % 1011,9 hPa 0,0 l/m 7,6 km/h (2 Bft) W 265 0 min 7 W/m 13,7 C 14,5 C 14,5 km/h (3 Bft)
26.06.2016 05:30 15,2 C 90 % 1011,9 hPa 0,0 l/m 9,6 km/h (2 Bft) W-SW 242 0 min 5 W/m 13,6 C 13,5 C 16,1 km/h (3 Bft)
26.06.2016 05:33 15,1 C 90 % 1011,9 hPa 0,0 l/m 8,3 km/h (2 Bft) SW 235 0 min 5 W/m 13,5 C 14,0 C 17,7 km/h (3 Bft)
26.06.2016 05:36 15,1 C 90 % 1011,9 hPa 0,0 l/m 8,7 km/h (2 Bft) W-SW 240 0 min 7 W/m 13,5 C 13,8 C 16,1 km/h (3 Bft)
26.06.2016 05:39 15,1 C 90 % 1011,9 hPa 0,0 l/m 7,6 km/h (2 Bft) SW 230 0 min 7 W/m 13,5 C 14,4 C 12,9 km/h (3 Bft)
26.06.2016 05:42 15,1 C 91 % 1011,9 hPa 0,0 l/m 7,6 km/h (2 Bft) W-SW 246 0 min 12 W/m 13,6 C 14,4 C 12,9 km/h (3 Bft)
26.06.2016 05:45 15,1 C 91 % 1011,9 hPa 0,0 l/m 11,3 km/h (2 Bft) SW 229 0 min 11 W/m 13,6 C 12,7 C 17,7 km/h (3 Bft)
26.06.2016 05:48 15,1 C 91 % 1011,9 hPa 0,0 l/m 11,0 km/h (2 Bft) W-SW 240 0 min 11 W/m 13,6 C 12,8 C 17,7 km/h (3 Bft)
26.06.2016 05:51 15,0 C 91 % 1011,9 hPa 0,0 l/m 8,8 km/h (2 Bft) W-SW 244 0 min 11 W/m 13,5 C 13,7 C 14,5 km/h (3 Bft)
26.06.2016 05:54 14,9 C 91 % 1011,9 hPa 0,0 l/m 10,3 km/h (2 Bft) SW 233 0 min 9 W/m 13,4 C 12,9 C 17,7 km/h (3 Bft)
26.06.2016 05:57 14,9 C 91 % 1011,9 hPa 0,0 l/m 9,7 km/h (2 Bft) W-SW 245 0 min 9 W/m 13,4 C 13,1 C 17,7 km/h (3 Bft)
26.06.2016 06:00 14,8 C 91 % 1012,0 hPa 0,0 l/m 8,8 km/h (2 Bft) SW 232 0 min 11 W/m 13,3 C 13,5 C 16,1 km/h (3 Bft)
26.06.2016 06:03 14,8 C 91 % 1011,9 hPa 0,0 l/m 9,1 km/h (2 Bft) SW 227 0 min 14 W/m 13,3 C 13,3 C 16,1 km/h (3 Bft)
26.06.2016 06:06 14,8 C 91 % 1012,0 hPa 0,0 l/m 7,3 km/h (2 Bft) SW 221 0 min 32 W/m 13,3 C 14,3 C 11,3 km/h (2 Bft)
26.06.2016 06:09 14,8 C 92 % 1012,0 hPa 0,0 l/m 6,5 km/h (2 Bft) S-SW 211 0 min 23 W/m 13,5 C 14,8 C 9,7 km/h (2 Bft)
26.06.2016 06:12 14,8 C 92 % 1012,0 hPa 0,0 l/m 7,4 km/h (2 Bft) S-SW 211 0 min 19 W/m 13,5 C 14,2 C 11,3 km/h (2 Bft)
26.06.2016 06:15 14,8 C 92 % 1012,0 hPa 0,0 l/m 7,1 km/h (2 Bft) SW 236 0 min 18 W/m 13,5 C 14,4 C 12,9 km/h (3 Bft)
26.06.2016 06:18 14,8 C 92 % 1012,1 hPa 0,0 l/m 7,6 km/h (2 Bft) S-SW 206 0 min 19 W/m 13,5 C 14,1 C 11,3 km/h (2 Bft)
26.06.2016 06:21 14,8 C 92 % 1012,1 hPa 0,0 l/m 7,6 km/h (2 Bft) SW 215 0 min 16 W/m 13,5 C 14,1 C 14,5 km/h (3 Bft)
26.06.2016 06:24 14,8 C 92 % 1012,1 hPa 0,0 l/m 8,6 km/h (2 Bft) SW 229 0 min 28 W/m 13,5 C 13,6 C 17,7 km/h (3 Bft)
26.06.2016 06:27 14,8 C 92 % 1012,1 hPa 0,0 l/m 7,0 km/h (2 Bft) SW 219 0 min 53 W/m 13,5 C 14,5 C 11,3 km/h (2 Bft)
26.06.2016 06:30 14,8 C 93 % 1012,1 hPa 0,0 l/m 8,6 km/h (2 Bft) SW 228 0 min 42 W/m 13,7 C 13,6 C 14,5 km/h (3 Bft)
26.06.2016 06:33 14,9 C 93 % 1012,2 hPa 0,0 l/m 9,2 km/h (2 Bft) SW 217 0 min 56 W/m 13,8 C 13,4 C 16,1 km/h (3 Bft)
26.06.2016 06:36 15,0 C 93 % 1012,2 hPa 0,0 l/m 10,8 km/h (2 Bft) SW 217 0 min 56 W/m 13,9 C 12,8 C 16,1 km/h (3 Bft)
26.06.2016 06:39 15,1 C 93 % 1012,2 hPa 0,0 l/m 14,2 km/h (3 Bft) W-SW 242 0 min 54 W/m 14,0 C 11,6 C 22,5 km/h (4 Bft)
26.06.2016 06:42 15,2 C 93 % 1012,2 hPa 0,0 l/m 12,6 km/h (3 Bft) SW 223 0 min 46 W/m 14,1 C 12,3 C 17,7 km/h (3 Bft)
26.06.2016 06:45 15,2 C 93 % 1012,2 hPa 0,0 l/m 10,4 km/h (2 Bft) SW 217 0 min 56 W/m 14,1 C 13,2 C 16,1 km/h (3 Bft)
26.06.2016 06:48 15,3 C 92 % 1012,2 hPa 0,0 l/m 13,0 km/h (3 Bft) S-SW 195 0 min 56 W/m 14,0 C 12,2 C 22,5 km/h (4 Bft)
26.06.2016 06:51 15,3 C 92 % 1012,3 hPa 0,0 l/m 15,2 km/h (3 Bft) S-SW 198 0 min 53 W/m 14,0 C 11,5 C 20,9 km/h (4 Bft)
26.06.2016 06:54 15,3 C 92 % 1012,4 hPa 0,0 l/m 15,7 km/h (3 Bft) W-SW 258 0 min 37 W/m 14,0 C 11,3 C 24,1 km/h (4 Bft)
26.06.2016 06:57 15,2 C 92 % 1012,3 hPa 0,0 l/m 12,0 km/h (2 Bft) SW 226 0 min 33 W/m 13,9 C 12,5 C 20,9 km/h (4 Bft)
26.06.2016 07:00 15,2 C 92 % 1012,5 hPa 0,0 l/m 14,2 km/h (3 Bft) S-SW 200 0 min 47 W/m 13,9 C 11,7 C 22,5 km/h (4 Bft)
26.06.2016 07:03 15,1 C 93 % 1012,5 hPa 0,0 l/m 13,8 km/h (3 Bft) W-SW 250 0 min 49 W/m 14,0 C 11,7 C 22,5 km/h (4 Bft)
26.06.2016 07:06 15,1 C 93 % 1012,5 hPa 0,0 l/m 11,7 km/h (2 Bft) SW 234 0 min 47 W/m 14,0 C 12,5 C 16,1 km/h (3 Bft)
26.06.2016 07:09 15,1 C 93 % 1012,5 hPa 0,0 l/m 11,7 km/h (2 Bft) SW 220 0 min 40 W/m 14,0 C 12,5 C 19,3 km/h (3 Bft)
26.06.2016 07:12 15,0 C 93 % 1012,5 hPa 0,0 l/m 11,5 km/h (2 Bft) S-SW 205 0 min 60 W/m 13,9 C 12,5 C 22,5 km/h (4 Bft)
26.06.2016 07:15 15,0 C 93 % 1012,5 hPa 0,0 l/m 11,7 km/h (2 Bft) SW 222 0 min 60 W/m 13,9 C 12,4 C 16,1 km/h (3 Bft)
26.06.2016 07:18 15,0 C 93 % 1012,5 hPa 0,0 l/m 11,5 km/h (2 Bft) SW 225 0 min 54 W/m 13,9 C 12,5 C 17,7 km/h (3 Bft)
26.06.2016 07:21 15,0 C 93 % 1012,4 hPa 0,0 l/m 11,2 km/h (2 Bft) W-SW 238 0 min 60 W/m 13,9 C 12,6 C 19,3 km/h (3 Bft)
26.06.2016 07:24 15,1 C 93 % 1012,5 hPa 0,0 l/m 12,1 km/h (2 Bft) S-SW 213 0 min 42 W/m 14,0 C 12,3 C 17,7 km/h (3 Bft)
26.06.2016 07:27 15,0 C 92 % 1012,5 hPa 0,0 l/m 15,4 km/h (3 Bft) SW 232 0 min 37 W/m 13,7 C 11,1 C 22,5 km/h (4 Bft)
26.06.2016 07:30 14,9 C 92 % 1012,4 hPa 0,0 l/m 16,0 km/h (3 Bft) SW 219 0 min 32 W/m 13,6 C 10,7 C 20,9 km/h (4 Bft)
26.06.2016 07:33 14,8 C 92 % 1012,4 hPa 0,0 l/m 18,4 km/h (3 Bft) W-SW 244 0 min 49 W/m 13,5 C 9,9 C 27,4 km/h (5 Bft)
26.06.2016 07:36 14,9 C 92 % 1012,4 hPa 0,0 l/m 13,1 km/h (3 Bft) SW 231 0 min 69 W/m 13,6 C 11,7 C 22,5 km/h (4 Bft)
26.06.2016 07:39 15,0 C 93 % 1012,3 hPa 0,0 l/m 10,1 km/h (2 Bft) S-SW 213 0 min 40 W/m 13,9 C 13,1 C 17,7 km/h (3 Bft)
26.06.2016 07:42 15,1 C 92 % 1012,4 hPa 0,0 l/m 15,1 km/h (3 Bft) S-SW 194 0 min 35 W/m 13,8 C 11,3 C 24,1 km/h (4 Bft)
26.06.2016 07:45 15,1 C 91 % 1012,4 hPa 0,0 l/m 15,3 km/h (3 Bft) W-SW 255 0 min 47 W/m 13,6 C 11,2 C 22,5 km/h (4 Bft)
26.06.2016 07:48 15,1 C 91 % 1012,4 hPa 0,0 l/m 16,6 km/h (3 Bft) SW 234 0 min 49 W/m 13,6 C 10,8 C 24,1 km/h (4 Bft)
26.06.2016 07:51 15,1 C 91 % 1012,5 hPa 0,0 l/m 13,8 km/h (3 Bft) W-SW 237 0 min 62 W/m 13,6 C 11,7 C 22,5 km/h (4 Bft)
26.06.2016 07:54 15,1 C 90 % 1012,5 hPa 0,0 l/m 14,8 km/h (3 Bft) SW 233 0 min 40 W/m 13,5 C 11,4 C 22,5 km/h (4 Bft)
26.06.2016 07:57 15,1 C 90 % 1012,6 hPa 0,0 l/m 13,9 km/h (3 Bft) W-SW 248 0 min 60 W/m 13,5 C 11,7 C 22,5 km/h (4 Bft)
26.06.2016 08:00 15,1 C 91 % 1012,5 hPa 0,0 l/m 15,3 km/h (3 Bft) S-SW 205 0 min 56 W/m 13,6 C 11,2 C 24,1 km/h (4 Bft)
26.06.2016 08:03 15,0 C 90 % 1012,5 hPa 0,0 l/m 14,8 km/h (3 Bft) SW 228 0 min 83 W/m 13,4 C 11,3 C 29,0 km/h (5 Bft)
26.06.2016 08:06 15,0 C 90 % 1012,5 hPa 0,0 l/m 17,0 km/h (3 Bft) SW 224 0 min 42 W/m 13,4 C 10,6 C 27,4 km/h (5 Bft)
26.06.2016 08:09 15,0 C 90 % 1012,5 hPa 0,0 l/m 13,0 km/h (3 Bft) S-SW 206 0 min 33 W/m 13,4 C 11,9 C 20,9 km/h (4 Bft)
26.06.2016 08:12 15,0 C 90 % 1012,5 hPa 0,0 l/m 14,9 km/h (3 Bft) S-SW 192 0 min 42 W/m 13,4 C 11,2 C 20,9 km/h (4 Bft)
26.06.2016 08:15 14,9 C 90 % 1012,6 hPa 0,0 l/m 16,5 km/h (3 Bft) SW 234 0 min 28 W/m 13,3 C 10,6 C 27,4 km/h (5 Bft)
26.06.2016 08:18 15,0 C 90 % 1012,6 hPa 0,0 l/m 17,1 km/h (3 Bft) SW 227 0 min 51 W/m 13,4 C 10,5 C 25,7 km/h (4 Bft)
26.06.2016 08:21 15,1 C 90 % 1012,6 hPa 0,0 l/m 14,3 km/h (3 Bft) SW 229 0 min 56 W/m 13,5 C 11,5 C 22,5 km/h (4 Bft)
26.06.2016 08:24 15,1 C 90 % 1012,7 hPa 0,0 l/m 14,3 km/h (3 Bft) W-SW 238 0 min 83 W/m 13,5 C 11,5 C 25,7 km/h (4 Bft)
26.06.2016 08:27 15,1 C 90 % 1012,7 hPa 0,0 l/m 12,8 km/h (3 Bft) SW 218 0 min 70 W/m 13,5 C 12,1 C 22,5 km/h (4 Bft)
26.06.2016 08:30 15,2 C 89 % 1012,7 hPa 0,0 l/m 13,5 km/h (3 Bft) S-SW 204 0 min 37 W/m 13,4 C 11,9 C 24,1 km/h (4 Bft)
26.06.2016 08:33 15,2 C 89 % 1012,8 hPa 0,0 l/m 14,2 km/h (3 Bft) W-SW 256 0 min 65 W/m 13,4 C 11,7 C 19,3 km/h (3 Bft)
26.06.2016 08:36 15,3 C 89 % 1012,8 hPa 0,0 l/m 14,4 km/h (3 Bft) S 184 0 min 72 W/m 13,5 C 11,8 C 20,9 km/h (4 Bft)
26.06.2016 08:39 15,3 C 89 % 1012,9 hPa 0,0 l/m 15,9 km/h (3 Bft) SW 233 0 min 53 W/m 13,5 C 11,3 C 22,5 km/h (4 Bft)
26.06.2016 08:42 15,3 C 88 % 1012,9 hPa 0,0 l/m 15,6 km/h (3 Bft) SW 228 0 min 98 W/m 13,3 C 11,4 C 29,0 km/h (5 Bft)
26.06.2016 08:45 15,4 C 89 % 1012,9 hPa 0,0 l/m 13,2 km/h (3 Bft) S-SW 198 0 min 97 W/m 13,6 C 12,3 C 22,5 km/h (4 Bft)
26.06.2016 08:48 15,4 C 89 % 1012,9 hPa 0,0 l/m 14,3 km/h (3 Bft) SW 217 0 min 69 W/m 13,6 C 11,9 C 22,5 km/h (4 Bft)
26.06.2016 08:51 15,3 C 88 % 1012,9 hPa 0,0 l/m 16,7 km/h (3 Bft) SW 219 0 min 60 W/m 13,3 C 11,0 C 24,1 km/h (4 Bft)
26.06.2016 08:54 15,3 C 88 % 1013,0 hPa 0,0 l/m 14,8 km/h (3 Bft) W-SW 238 0 min 62 W/m 13,3 C 11,6 C 22,5 km/h (4 Bft)
26.06.2016 08:57 15,3 C 88 % 1013,0 hPa 0,0 l/m 18,1 km/h (3 Bft) S-SW 201 0 min 167 W/m 13,3 C 10,6 C 27,4 km/h (5 Bft)
26.06.2016 09:00 15,4 C 88 % 1012,9 hPa 0,0 l/m 14,5 km/h (3 Bft) SW 217 0 min 153 W/m 13,4 C 11,8 C 20,9 km/h (4 Bft)
26.06.2016 09:03 15,6 C 89 % 1013,0 hPa 0,0 l/m 14,0 km/h (3 Bft) W-SW 250 0 min 120 W/m 13,8 C 12,2 C 20,9 km/h (4 Bft)
26.06.2016 09:06 15,6 C 87 % 1013,1 hPa 0,0 l/m 18,4 km/h (3 Bft) SW 225 0 min 90 W/m 13,4 C 10,9 C 27,4 km/h (5 Bft)
26.06.2016 09:09 15,4 C 87 % 1013,0 hPa 0,0 l/m 20,1 km/h (4 Bft) S-SW 203 0 min 62 W/m 13,2 C 10,2 C 29,0 km/h (5 Bft)
26.06.2016 09:12 15,3 C 88 % 1013,0 hPa 0,0 l/m 19,0 km/h (3 Bft) SW 234 0 min 62 W/m 13,3 C 10,4 C 25,7 km/h (4 Bft)
26.06.2016 09:15 15,3 C 87 % 1013,0 hPa 0,0 l/m 19,3 km/h (3 Bft) W-SW 245 0 min 69 W/m 13,1 C 10,3 C 30,6 km/h (5 Bft)
26.06.2016 09:18 15,4 C 87 % 1013,1 hPa 0,0 l/m 16,2 km/h (3 Bft) S-SW 211 0 min 102 W/m 13,2 C 11,3 C 25,7 km/h (4 Bft)
26.06.2016 09:21 15,4 C 87 % 1013,1 hPa 0,0 l/m 16,5 km/h (3 Bft) SW 223 0 min 95 W/m 13,2 C 11,2 C 27,4 km/h (5 Bft)
26.06.2016 09:24 15,5 C 87 % 1013,1 hPa 0,0 l/m 12,5 km/h (2 Bft) W-SW 245 0 min 130 W/m 13,3 C 12,7 C 24,1 km/h (4 Bft)
26.06.2016 09:27 15,5 C 86 % 1013,2 hPa 0,0 l/m 16,3 km/h (3 Bft) SW 228 0 min 132 W/m 13,2 C 11,4 C 24,1 km/h (4 Bft)
26.06.2016 09:30 15,6 C 87 % 1013,2 hPa 0,0 l/m 13,1 km/h (3 Bft) SW 229 0 min 156 W/m 13,4 C 12,6 C 22,5 km/h (4 Bft)
26.06.2016 09:33 15,7 C 87 % 1013,2 hPa 0,0 l/m 13,3 km/h (3 Bft) SW 229 0 min 142 W/m 13,5 C 12,6 C 20,9 km/h (4 Bft)
26.06.2016 09:36 15,7 C 86 % 1013,2 hPa 0,0 l/m 11,5 km/h (2 Bft) S 190 0 min 179 W/m 13,4 C 13,3 C 19,3 km/h (3 Bft)
26.06.2016 09:39 15,8 C 87 % 1013,3 hPa 0,0 l/m 12,7 km/h (3 Bft) S-SW 205 0 min 176 W/m 13,6 C 12,9 C 20,9 km/h (4 Bft)
26.06.2016 09:42 16,0 C 87 % 1013,2 hPa 0,0 l/m 11,8 km/h (2 Bft) SW 225 0 min 153 W/m 13,8 C 13,5 C 19,3 km/h (3 Bft)
26.06.2016 09:45 16,1 C 87 % 1013,3 hPa 0,0 l/m 11,6 km/h (2 Bft) S-SW 194 0 min 171 W/m 13,9 C 13,7 C 19,3 km/h (3 Bft)
26.06.2016 09:48 16,0 C 85 % 1013,3 hPa 0,0 l/m 14,7 km/h (3 Bft) SW 231 0 min 132 W/m 13,5 C 12,5 C 22,5 km/h (4 Bft)
26.06.2016 09:51 16,0 C 85 % 1013,4 hPa 0,0 l/m 13,9 km/h (3 Bft) S-SW 206 0 min 174 W/m 13,5 C 12,8 C 20,9 km/h (4 Bft)
26.06.2016 09:54 16,1 C 85 % 1013,4 hPa 0,0 l/m 15,2 km/h (3 Bft) S-SW 202 0 min 185 W/m 13,6 C 12,5 C 20,9 km/h (4 Bft)
26.06.2016 09:57 16,3 C 85 % 1013,4 hPa 0,0 l/m 14,0 km/h (3 Bft) SW 215 0 min 179 W/m 13,8 C 13,1 C 20,9 km/h (4 Bft)
26.06.2016 10:00 16,2 C 84 % 1013,4 hPa 0,0 l/m 15,7 km/h (3 Bft) S-SW 192 0 min 158 W/m 13,5 C 12,4 C 24,1 km/h (4 Bft)
26.06.2016 10:03 16,2 C 85 % 1013,4 hPa 0,0 l/m 16,0 km/h (3 Bft) S-SW 212 0 min 200 W/m 13,7 C 12,3 C 29,0 km/h (5 Bft)
26.06.2016 10:06 16,2 C 85 % 1013,4 hPa 0,0 l/m 14,1 km/h (3 Bft) SW 224 0 min 153 W/m 13,7 C 12,9 C 20,9 km/h (4 Bft)
26.06.2016 10:09 16,3 C 85 % 1013,5 hPa 0,0 l/m 14,6 km/h (3 Bft) W-SW 255 0 min 158 W/m 13,8 C 12,9 C 22,5 km/h (4 Bft)
26.06.2016 10:12 16,4 C 85 % 1013,4 hPa 0,0 l/m 9,8 km/h (2 Bft) W 263 0 min 149 W/m 13,9 C 14,7 C 17,7 km/h (3 Bft)
26.06.2016 10:15 16,6 C 84 % 1013,4 hPa 0,0 l/m 12,2 km/h (2 Bft) SW 227 0 min 116 W/m 13,9 C 14,0 C 20,9 km/h (4 Bft)
26.06.2016 10:18 16,5 C 82 % 1013,5 hPa 0,0 l/m 16,6 km/h (3 Bft) SW 223 0 min 105 W/m 13,4 C 12,5 C 29,0 km/h (5 Bft)
26.06.2016 10:21 16,4 C 82 % 1013,6 hPa 0,0 l/m 17,0 km/h (3 Bft) W-SW 243 0 min 84 W/m 13,3 C 12,3 C 27,4 km/h (5 Bft)
26.06.2016 10:24 16,3 C 81 % 1013,6 hPa 0,0 l/m 13,4 km/h (3 Bft) SW 236 0 min 100 W/m 13,0 C 13,3 C 17,7 km/h (3 Bft)
26.06.2016 10:27 16,4 C 83 % 1013,5 hPa 0,0 l/m 10,8 km/h (2 Bft) W-SW 251 0 min 183 W/m 13,5 C 14,3 C 19,3 km/h (3 Bft)
26.06.2016 10:30 16,6 C 83 % 1013,5 hPa 0,0 l/m 11,8 km/h (2 Bft) SW 218 0 min 174 W/m 13,7 C 14,2 C 19,3 km/h (3 Bft)
26.06.2016 10:33 16,7 C 83 % 1013,5 hPa 0,0 l/m 13,5 km/h (3 Bft) W-SW 240 0 min 216 W/m 13,8 C 13,7 C 20,9 km/h (4 Bft)
26.06.2016 10:36 16,7 C 81 % 1013,6 hPa 0,0 l/m 16,8 km/h (3 Bft) W-SW 253 0 min 167 W/m 13,4 C 12,7 C 24,1 km/h (4 Bft)
26.06.2016 10:39 16,7 C 81 % 1013,6 hPa 0,0 l/m 14,4 km/h (3 Bft) W-SW 243 0 min 111 W/m 13,4 C 13,4 C 20,9 km/h (4 Bft)
26.06.2016 10:42 16,6 C 81 % 1013,5 hPa 0,0 l/m 16,0 km/h (3 Bft) SW 229 0 min 155 W/m 13,3 C 12,8 C 22,5 km/h (4 Bft)
26.06.2016 10:45 16,7 C 82 % 1013,5 hPa 0,0 l/m 17,8 km/h (3 Bft) S-SW 208 0 min 155 W/m 13,6 C 12,5 C 25,7 km/h (4 Bft)
26.06.2016 10:48 16,9 C 81 % 1013,6 hPa 0,0 l/m 16,8 km/h (3 Bft) SW 236 0 min 139 W/m 13,6 C 13,0 C 24,1 km/h (4 Bft)
26.06.2016 10:51 17,3 C 82 % 1013,6 hPa 0,0 l/m 10,6 km/h (2 Bft) SW 234 0 min 141 W/m 14,2 C 15,4 C 16,1 km/h (3 Bft)
26.06.2016 10:54 17,6 C 78 % 1013,7 hPa 0,0 l/m 16,5 km/h (3 Bft) S-SW 206 0 min 141 W/m 13,7 C 13,9 C 29,0 km/h (5 Bft)
26.06.2016 10:57 17,6 C 79 % 1013,6 hPa 0,0 l/m 11,8 km/h (2 Bft) S 171 0 min 141 W/m 13,9 C 15,3 C 17,7 km/h (3 Bft)
26.06.2016 11:00 17,6 C 79 % 1013,7 hPa 0,0 l/m 12,6 km/h (3 Bft) W-SW 242 0 min 121 W/m 13,9 C 15,1 C 20,9 km/h (4 Bft)
26.06.2016 11:03 17,5 C 77 % 1013,7 hPa 0,0 l/m 18,4 km/h (3 Bft) SW 229 3 min 735 W/m 13,4 C 13,3 C 27,4 km/h (5 Bft)
26.06.2016 11:06 17,7 C 78 % 1013,7 hPa 0,0 l/m 14,6 km/h (3 Bft) W-SW 248 3 min 782 W/m 13,8 C 14,6 C 22,5 km/h (4 Bft)
26.06.2016 11:09 17,8 C 75 % 1013,7 hPa 0,0 l/m 13,6 km/h (3 Bft) W-SW 246 0 min 118 W/m 13,3 C 15,0 C 24,1 km/h (4 Bft)
26.06.2016 11:12 17,7 C 76 % 1013,8 hPa 0,0 l/m 12,1 km/h (2 Bft) SW 228 0 min 206 W/m 13,4 C 15,3 C 20,9 km/h (4 Bft)
26.06.2016 11:15 17,4 C 78 % 1013,8 hPa 0,0 l/m 12,8 km/h (3 Bft) S-SW 213 0 min 91 W/m 13,5 C 14,8 C 19,3 km/h (3 Bft)
26.06.2016 11:18 17,1 C 78 % 1013,7 hPa 0,0 l/m 13,9 km/h (3 Bft) S-SW 209 0 min 127 W/m 13,2 C 14,1 C 22,5 km/h (4 Bft)
26.06.2016 11:21 16,9 C 79 % 1013,8 hPa 0,0 l/m 12,6 km/h (3 Bft) SW 214 0 min 127 W/m 13,2 C 14,3 C 19,3 km/h (3 Bft)
26.06.2016 11:24 17,2 C 79 % 1013,8 hPa 0,0 l/m 15,9 km/h (3 Bft) S-SW 213 0 min 211 W/m 13,5 C 13,6 C 25,7 km/h (4 Bft)
26.06.2016 11:27 17,2 C 78 % 1013,8 hPa 0,0 l/m 15,9 km/h (3 Bft) S-SW 210 0 min 250 W/m 13,3 C 13,6 C 25,7 km/h (4 Bft)
26.06.2016 11:30 17,2 C 78 % 1013,7 hPa 0,0 l/m 11,0 km/h (2 Bft) SW 227 0 min 120 W/m 13,3 C 15,2 C 17,7 km/h (3 Bft)
26.06.2016 11:33 17,3 C 78 % 1013,8 hPa 0,0 l/m 13,8 km/h (3 Bft) S-SW 203 0 min 172 W/m 13,4 C 14,3 C 22,5 km/h (4 Bft)
26.06.2016 11:36 17,3 C 78 % 1013,9 hPa 0,0 l/m 14,2 km/h (3 Bft) S-SW 207 0 min 146 W/m 13,4 C 14,2 C 22,5 km/h (4 Bft)
26.06.2016 11:39 17,1 C 75 % 1013,9 hPa 0,0 l/m 18,4 km/h (3 Bft) S-SW 211 0 min 149 W/m 12,6 C 12,8 C 29,0 km/h (5 Bft)
26.06.2016 11:42 17,0 C 75 % 1013,9 hPa 0,0 l/m 16,8 km/h (3 Bft) SW 221 3 min 821 W/m 12,5 C 13,1 C 24,1 km/h (4 Bft)
26.06.2016 11:45 17,4 C 76 % 1014,0 hPa 0,0 l/m 14,1 km/h (3 Bft) S-SW 198 3 min 731 W/m 13,1 C 14,4 C 19,3 km/h (3 Bft)
26.06.2016 11:48 17,7 C 74 % 1014,0 hPa 0,0 l/m 17,2 km/h (3 Bft) S 181 0 min 178 W/m 13,0 C 13,9 C 24,1 km/h (4 Bft)
26.06.2016 11:51 17,4 C 74 % 1014,0 hPa 0,0 l/m 14,6 km/h (3 Bft) SW 224 0 min 216 W/m 12,7 C 14,2 C 25,7 km/h (4 Bft)
26.06.2016 11:54 17,7 C 76 % 1014,0 hPa 0,0 l/m 9,7 km/h (2 Bft) SW 217 3 min 805 W/m 13,4 C 16,2 C 17,7 km/h (3 Bft)
26.06.2016 11:57 17,7 C 74 % 1014,0 hPa 0,0 l/m 13,2 km/h (3 Bft) SW 229 0 min 167 W/m 13,0 C 15,0 C 19,3 km/h (3 Bft)
26.06.2016 12:00 17,7 C 76 % 1014,0 hPa 0,0 l/m 12,9 km/h (3 Bft) S-SW 211 0 min 144 W/m 13,4 C 15,1 C 20,9 km/h (4 Bft)
26.06.2016 12:03 17,4 C 74 % 1014,0 hPa 0,0 l/m 15,1 km/h (3 Bft) SW 229 0 min 130 W/m 12,7 C 14,1 C 24,1 km/h (4 Bft)
26.06.2016 12:06 17,1 C 76 % 1014,0 hPa 0,0 l/m 15,0 km/h (3 Bft) SW 226 0 min 211 W/m 12,8 C 13,7 C 20,9 km/h (4 Bft)
26.06.2016 12:09 17,3 C 77 % 1014,0 hPa 0,0 l/m 15,0 km/h (3 Bft) W 266 3 min 803 W/m 13,2 C 14,0 C 27,4 km/h (5 Bft)
26.06.2016 12:12 17,7 C 76 % 1013,9 hPa 0,0 l/m 15,9 km/h (3 Bft) W-SW 244 3 min 684 W/m 13,4 C 14,2 C 20,9 km/h (4 Bft)
26.06.2016 12:15 17,7 C 75 % 1013,9 hPa 0,0 l/m 13,5 km/h (3 Bft) SW 225 0 min 197 W/m 13,2 C 14,9 C 20,9 km/h (4 Bft)
26.06.2016 12:18 17,7 C 76 % 1014,0 hPa 0,0 l/m 12,7 km/h (3 Bft) S-SW 198 0 min 246 W/m 13,4 C 15,2 C 20,9 km/h (4 Bft)
26.06.2016 12:21 17,8 C 75 % 1014,0 hPa 0,0 l/m 16,2 km/h (3 Bft) S-SW 213 0 min 246 W/m 13,3 C 14,3 C 27,4 km/h (5 Bft)
26.06.2016 12:24 17,8 C 74 % 1014,0 hPa 0,0 l/m 16,0 km/h (3 Bft) S-SW 202 0 min 241 W/m 13,1 C 14,3 C 27,4 km/h (5 Bft)
26.06.2016 12:27 17,7 C 75 % 1013,9 hPa 0,0 l/m 14,4 km/h (3 Bft) SW 217 0 min 294 W/m 13,2 C 14,6 C 22,5 km/h (4 Bft)
26.06.2016 12:30 18,2 C 75 % 1013,9 hPa 0,0 l/m 11,5 km/h (2 Bft) SW 225 0 min 148 W/m 13,7 C 16,1 C 19,3 km/h (3 Bft)
26.06.2016 12:33 18,2 C 73 % 1013,9 hPa 0,0 l/m 14,0 km/h (3 Bft) SW 228 0 min 185 W/m 13,3 C 15,3 C 24,1 km/h (4 Bft)
26.06.2016 12:36 18,1 C 73 % 1013,9 hPa 0,0 l/m 15,2 km/h (3 Bft) SW 217 0 min 306 W/m 13,2 C 14,9 C 22,5 km/h (4 Bft)
26.06.2016 12:39 18,2 C 72 % 1013,9 hPa 0,0 l/m 14,2 km/h (3 Bft) W-SW 240 0 min 151 W/m 13,1 C 15,3 C 19,3 km/h (3 Bft)
26.06.2016 12:42 18,1 C 73 % 1013,9 hPa 0,0 l/m 11,5 km/h (2 Bft) W-SW 237 0 min 199 W/m 13,2 C 16,0 C 19,3 km/h (3 Bft)
26.06.2016 12:45 17,9 C 72 % 1013,9 hPa 0,0 l/m 12,8 km/h (3 Bft) SW 232 0 min 237 W/m 12,8 C 15,4 C 20,9 km/h (4 Bft)
26.06.2016 12:48 17,7 C 73 % 1013,8 hPa 0,0 l/m 12,0 km/h (2 Bft) SW 215 0 min 237 W/m 12,8 C 15,4 C 19,3 km/h (3 Bft)
26.06.2016 12:51 18,5 C 74 % 1013,7 hPa 0,0 l/m 11,4 km/h (2 Bft) W-SW 243 3 min 997 W/m 13,8 C 16,5 C 17,7 km/h (3 Bft)
26.06.2016 12:54 19,0 C 71 % 1013,8 hPa 0,0 l/m 13,1 km/h (3 Bft) SW 225 0 min 153 W/m 13,6 C 16,6 C 20,9 km/h (4 Bft)
26.06.2016 12:57 18,7 C 69 % 1013,8 hPa 0,0 l/m 15,8 km/h (3 Bft) SW 236 0 min 197 W/m 12,9 C 15,5 C 24,1 km/h (4 Bft)
26.06.2016 13:00 18,4 C 70 % 1013,7 hPa 0,0 l/m 16,5 km/h (3 Bft) S-SW 207 0 min 197 W/m 12,8 C 14,9 C 24,1 km/h (4 Bft)
26.06.2016 13:03 18,6 C 73 % 1013,8 hPa 0,0 l/m 12,8 km/h (3 Bft) SW 223 0 min 223 W/m 13,7 C 16,2 C 17,7 km/h (3 Bft)
26.06.2016 13:06 18,7 C 70 % 1013,8 hPa 0,0 l/m 12,4 km/h (2 Bft) S-SW 210 0 min 172 W/m 13,1 C 16,4 C 19,3 km/h (3 Bft)
26.06.2016 13:09 18,4 C 70 % 1013,8 hPa 0,0 l/m 15,8 km/h (3 Bft) S-SW 213 0 min 192 W/m 12,8 C 15,1 C 22,5 km/h (4 Bft)
26.06.2016 13:12 18,4 C 69 % 1013,8 hPa 0,0 l/m 16,1 km/h (3 Bft) SW 225 0 min 192 W/m 12,6 C 15,0 C 25,7 km/h (4 Bft)
26.06.2016 13:15 18,9 C 71 % 1013,7 hPa 0,0 l/m 13,4 km/h (3 Bft) S-SW 196 3 min 896 W/m 13,5 C 16,3 C 25,7 km/h (4 Bft)
26.06.2016 13:18 19,1 C 66 % 1013,7 hPa 0,0 l/m 13,6 km/h (3 Bft) S-SW 211 0 min 69 W/m 12,6 C 16,5 C 20,9 km/h (4 Bft)
26.06.2016 13:21 18,7 C 69 % 1013,8 hPa 0,0 l/m 12,3 km/h (2 Bft) SW 217 0 min 81 W/m 12,9 C 16,4 C 19,3 km/h (3 Bft)
26.06.2016 13:24 18,3 C 69 % 1013,8 hPa 0,0 l/m 14,3 km/h (3 Bft) SW 228 0 min 127 W/m 12,5 C 15,4 C 20,9 km/h (4 Bft)
26.06.2016 13:27 18,0 C 71 % 1013,7 hPa 0,0 l/m 15,2 km/h (3 Bft) S-SW 203 0 min 144 W/m 12,7 C 14,8 C 24,1 km/h (4 Bft)
26.06.2016 13:30 18,8 C 70 % 1013,7 hPa 0,0 l/m 10,3 km/h (2 Bft) W-SW 240 3 min 882 W/m 13,2 C 17,2 C 17,7 km/h (3 Bft)
26.06.2016 13:33 19,4 C 70 % 1013,7 hPa 0,0 l/m 10,7 km/h (2 Bft) SW 230 3 min 898 W/m 13,8 C 17,7 C 20,9 km/h (4 Bft)
26.06.2016 13:36 19,9 C 65 % 1013,6 hPa 0,0 l/m 16,4 km/h (3 Bft) W-SW 248 3 min 937 W/m 13,1 C 16,8 C 29,0 km/h (5 Bft)
26.06.2016 13:39 20,1 C 66 % 1013,7 hPa 0,0 l/m 13,9 km/h (3 Bft) S-SW 209 3 min 970 W/m 13,5 C 17,6 C 22,5 km/h (4 Bft)
26.06.2016 13:42 20,1 C 64 % 1013,7 hPa 0,0 l/m 15,1 km/h (3 Bft) SW 227 3 min 970 W/m 13,1 C 17,3 C 20,9 km/h (4 Bft)
26.06.2016 13:45 20,2 C 64 % 1013,6 hPa 0,0 l/m 13,2 km/h (3 Bft) S-SW 206 3 min 1023 W/m 13,2 C 17,9 C 24,1 km/h (4 Bft)
26.06.2016 13:48 19,8 C 65 % 1013,6 hPa 0,0 l/m 16,1 km/h (3 Bft) W-SW 240 0 min 332 W/m 13,0 C 16,7 C 29,0 km/h (5 Bft)
26.06.2016 13:51 19,4 C 67 % 1013,7 hPa 0,0 l/m 19,3 km/h (3 Bft) SW 223 3 min 543 W/m 13,1 C 15,6 C 27,4 km/h (5 Bft)
26.06.2016 13:54 19,4 C 66 % 1013,6 hPa 0,0 l/m 19,6 km/h (3 Bft) SW 228 3 min 1025 W/m 12,9 C 15,5 C 29,0 km/h (5 Bft)
26.06.2016 13:57 19,7 C 67 % 1013,7 hPa 0,0 l/m 17,7 km/h (3 Bft) S-SW 213 3 min 1025 W/m 13,4 C 16,3 C 29,0 km/h (5 Bft)
26.06.2016 14:00 19,7 C 66 % 1013,7 hPa 0,0 l/m 16,2 km/h (3 Bft) W-SW 250 0 min 316 W/m 13,2 C 16,6 C 27,4 km/h (5 Bft)
26.06.2016 14:03 19,4 C 64 % 1013,7 hPa 0,0 l/m 18,5 km/h (3 Bft) S-SW 202 0 min 353 W/m 12,4 C 15,7 C 25,7 km/h (4 Bft)
26.06.2016 14:06 19,4 C 67 % 1013,7 hPa 0,0 l/m 16,9 km/h (3 Bft) S-SW 213 3 min 914 W/m 13,1 C 16,1 C 32,2 km/h (5 Bft)
26.06.2016 14:09 19,7 C 64 % 1013,7 hPa 0,0 l/m 19,6 km/h (3 Bft) SW 223 3 min 911 W/m 12,7 C 15,9 C 27,4 km/h (5 Bft)
26.06.2016 14:12 19,7 C 63 % 1013,6 hPa 0,0 l/m 15,1 km/h (3 Bft) SW 234 3 min 879 W/m 12,5 C 16,9 C 24,1 km/h (4 Bft)
26.06.2016 14:15 19,7 C 66 % 1013,7 hPa 0,0 l/m 12,8 km/h (3 Bft) W-SW 245 3 min 879 W/m 13,2 C 17,5 C 19,3 km/h (3 Bft)
26.06.2016 14:18 19,3 C 65 % 1013,7 hPa 0,0 l/m 19,7 km/h (3 Bft) S-SW 213 0 min 192 W/m 12,6 C 15,4 C 29,0 km/h (5 Bft)
26.06.2016 14:21 19,2 C 65 % 1013,7 hPa 0,0 l/m 19,7 km/h (3 Bft) S-SW 200 3 min 909 W/m 12,5 C 15,2 C 32,2 km/h (5 Bft)
26.06.2016 14:24 19,2 C 66 % 1013,7 hPa 0,0 l/m 14,3 km/h (3 Bft) W-SW 243 3 min 854 W/m 12,7 C 16,5 C 25,7 km/h (4 Bft)
26.06.2016 14:27 19,6 C 65 % 1013,7 hPa 0,0 l/m 16,7 km/h (3 Bft) S-SW 209 3 min 826 W/m 12,8 C 16,4 C 22,5 km/h (4 Bft)
26.06.2016 14:30 19,8 C 64 % 1013,7 hPa 0,0 l/m 15,0 km/h (3 Bft) W-SW 240 3 min 882 W/m 12,8 C 17,0 C 25,7 km/h (4 Bft)
26.06.2016 14:33 19,8 C 64 % 1013,8 hPa 0,0 l/m 17,8 km/h (3 Bft) W-SW 237 3 min 904 W/m 12,8 C 16,4 C 27,4 km/h (5 Bft)
26.06.2016 14:36 19,9 C 67 % 1013,7 hPa 0,0 l/m 13,5 km/h (3 Bft) S-SW 204 3 min 896 W/m 13,6 C 17,5 C 25,7 km/h (4 Bft)
26.06.2016 14:39 20,4 C 66 % 1013,6 hPa 0,0 l/m 12,7 km/h (3 Bft) SW 232 3 min 870 W/m 13,8 C 18,3 C 20,9 km/h (4 Bft)
26.06.2016 14:42 20,4 C 65 % 1013,7 hPa 0,0 l/m 17,1 km/h (3 Bft) SW 219 3 min 904 W/m 13,6 C 17,3 C 27,4 km/h (5 Bft)
26.06.2016 14:45 20,3 C 65 % 1013,7 hPa 0,0 l/m 16,0 km/h (3 Bft) W-SW 253 3 min 851 W/m 13,5 C 17,4 C 25,7 km/h (4 Bft)
26.06.2016 14:48 20,7 C 65 % 1013,7 hPa 0,0 l/m 13,1 km/h (3 Bft) W-SW 252 3 min 851 W/m 13,9 C 18,5 C 22,5 km/h (4 Bft)
26.06.2016 14:51 20,6 C 63 % 1013,7 hPa 0,0 l/m 14,7 km/h (3 Bft) SW 218 3 min 861 W/m 13,3 C 18,0 C 22,5 km/h (4 Bft)
26.06.2016 14:54 20,7 C 61 % 1013,7 hPa 0,0 l/m 16,4 km/h (3 Bft) SW 223 3 min 875 W/m 12,9 C 17,8 C 24,1 km/h (4 Bft)
26.06.2016 14:57 20,7 C 61 % 1013,8 hPa 0,0 l/m 13,0 km/h (3 Bft) W-SW 257 3 min 851 W/m 12,9 C 18,6 C 22,5 km/h (4 Bft)
26.06.2016 15:00 20,9 C 59 % 1013,8 hPa 0,0 l/m 16,8 km/h (3 Bft) W-SW 239 3 min 849 W/m 12,6 C 18,0 C 24,1 km/h (4 Bft)
26.06.2016 15:03 20,9 C 60 % 1013,7 hPa 0,0 l/m 16,6 km/h (3 Bft) S-SW 194 3 min 879 W/m 12,8 C 18,0 C 27,4 km/h (5 Bft)
26.06.2016 15:06 20,6 C 62 % 1013,8 hPa 0,0 l/m 13,4 km/h (3 Bft) SW 216 3 min 935 W/m 13,1 C 18,4 C 24,1 km/h (4 Bft)
26.06.2016 15:09 21,0 C 62 % 1013,7 hPa 0,0 l/m 11,5 km/h (2 Bft) SW 225 3 min 935 W/m 13,4 C 19,3 C 20,9 km/h (4 Bft)
26.06.2016 15:12 20,8 C 58 % 1013,8 hPa 0,0 l/m 16,0 km/h (3 Bft) W 279 0 min 276 W/m 12,2 C 18,0 C 29,0 km/h (5 Bft)
26.06.2016 15:15 20,3 C 61 % 1013,8 hPa 0,0 l/m 14,6 km/h (3 Bft) SW 232 0 min 264 W/m 12,5 C 17,7 C 24,1 km/h (4 Bft)
26.06.2016 15:18 19,8 C 64 % 1013,8 hPa 0,0 l/m 14,8 km/h (3 Bft) S-SO 162 0 min 209 W/m 12,8 C 17,1 C 24,1 km/h (4 Bft)
26.06.2016 15:21 19,6 C 66 % 1014,0 hPa 0,0 l/m 15,2 km/h (3 Bft) S-SW 213 0 min 109 W/m 13,1 C 16,7 C 32,2 km/h (5 Bft)
26.06.2016 15:24 19,3 C 68 % 1014,3 hPa 0,0 l/m 19,3 km/h (3 Bft) W-NW 298 0 min 100 W/m 13,2 C 15,4 C 32,2 km/h (5 Bft)
26.06.2016 15:27 18,7 C 70 % 1014,3 hPa 0,0 l/m 14,7 km/h (3 Bft) W 265 0 min 111 W/m 13,1 C 15,8 C 25,7 km/h (4 Bft)
26.06.2016 15:30 18,3 C 71 % 1014,2 hPa 0,0 l/m 14,1 km/h (3 Bft) SW 231 0 min 109 W/m 12,9 C 15,4 C 24,1 km/h (4 Bft)
26.06.2016 15:33 18,1 C 72 % 1014,2 hPa 0,0 l/m 14,3 km/h (3 Bft) W-NW 299 0 min 137 W/m 13,0 C 15,1 C 24,1 km/h (4 Bft)
26.06.2016 15:36 18,1 C 72 % 1014,2 hPa 0,0 l/m 14,3 km/h (3 Bft) W-NW 295 0 min 151 W/m 13,0 C 15,1 C 25,7 km/h (4 Bft)
26.06.2016 15:39 17,7 C 70 % 1014,2 hPa 0,0 l/m 14,2 km/h (3 Bft) W 278 0 min 165 W/m 12,2 C 14,7 C 20,9 km/h (4 Bft)
26.06.2016 15:42 17,7 C 71 % 1014,3 hPa 0,0 l/m 15,6 km/h (3 Bft) SW 232 0 min 163 W/m 12,4 C 14,3 C 25,7 km/h (4 Bft)
26.06.2016 15:45 17,7 C 69 % 1014,3 hPa 0,0 l/m 12,3 km/h (2 Bft) SW 231 0 min 149 W/m 11,9 C 15,3 C 20,9 km/h (4 Bft)
26.06.2016 15:48 17,6 C 68 % 1014,3 hPa 0,0 l/m 8,6 km/h (2 Bft) W-SW 239 0 min 148 W/m 11,6 C 16,6 C 19,3 km/h (3 Bft)
26.06.2016 15:51 17,6 C 68 % 1014,2 hPa 0,0 l/m 8,6 km/h (2 Bft) W-NW 290 0 min 176 W/m 11,6 C 16,6 C 17,7 km/h (3 Bft)
26.06.2016 15:54 17,8 C 70 % 1014,2 hPa 0,0 l/m 11,6 km/h (2 Bft) W 275 0 min 186 W/m 12,3 C 15,6 C 19,3 km/h (3 Bft)
26.06.2016 15:57 17,8 C 67 % 1014,2 hPa 0,0 l/m 11,7 km/h (2 Bft) W-SW 238 0 min 192 W/m 11,6 C 15,6 C 19,3 km/h (3 Bft)
26.06.2016 16:00 17,7 C 69 % 1014,2 hPa 0,0 l/m 7,8 km/h (2 Bft) SW 235 0 min 218 W/m 11,9 C 17,0 C 22,5 km/h (4 Bft)
26.06.2016 16:03 18,1 C 68 % 1014,2 hPa 0,0 l/m 9,0 km/h (2 Bft) SW 230 0 min 311 W/m 12,1 C 16,9 C 17,7 km/h (3 Bft)
26.06.2016 16:06 18,3 C 65 % 1014,2 hPa 0,0 l/m 10,0 km/h (2 Bft) W 268 0 min 369 W/m 11,6 C 16,8 C 16,1 km/h (3 Bft)
26.06.2016 16:09 18,6 C 66 % 1014,2 hPa 0,0 l/m 7,6 km/h (2 Bft) W-SW 244 0 min 285 W/m 12,1 C 18,1 C 16,1 km/h (3 Bft)
26.06.2016 16:12 18,9 C 64 % 1014,2 hPa 0,0 l/m 9,8 km/h (2 Bft) W-SW 250 0 min 327 W/m 11,9 C 17,5 C 20,9 km/h (4 Bft)
26.06.2016 16:15 18,8 C 65 % 1014,3 hPa 0,0 l/m 12,9 km/h (3 Bft) W-SW 244 0 min 190 W/m 12,1 C 16,4 C 22,5 km/h (4 Bft)
26.06.2016 16:18 18,7 C 68 % 1014,3 hPa 0,0 l/m 7,7 km/h (2 Bft) W 260 0 min 134 W/m 12,7 C 18,1 C 14,5 km/h (3 Bft)
26.06.2016 16:21 18,7 C 65 % 1014,4 hPa 0,0 l/m 10,2 km/h (2 Bft) SW 217 0 min 153 W/m 12,0 C 17,1 C 22,5 km/h (4 Bft)
26.06.2016 16:24 18,4 C 66 % 1014,4 hPa 0,0 l/m 9,4 km/h (2 Bft) W-NW 299 0 min 144 W/m 11,9 C 17,1 C 16,1 km/h (3 Bft)
26.06.2016 16:27 18,3 C 68 % 1014,3 hPa 0,0 l/m 11,0 km/h (2 Bft) W 273 0 min 193 W/m 12,3 C 16,4 C 20,9 km/h (4 Bft)
26.06.2016 16:30 18,3 C 68 % 1014,4 hPa 0,0 l/m 12,4 km/h (2 Bft) S-SW 205 0 min 163 W/m 12,3 C 15,9 C 24,1 km/h (4 Bft)
26.06.2016 16:33 18,1 C 71 % 1014,5 hPa 0,0 l/m 15,3 km/h (3 Bft) W-SW 237 0 min 95 W/m 12,8 C 14,9 C 25,7 km/h (4 Bft)
26.06.2016 16:36 17,9 C 72 % 1014,5 hPa 0,0 l/m 16,3 km/h (3 Bft) SW 217 0 min 86 W/m 12,8 C 14,4 C 24,1 km/h (4 Bft)
26.06.2016 16:39 17,4 C 73 % 1014,5 hPa 0,0 l/m 16,5 km/h (3 Bft) W-SW 249 0 min 130 W/m 12,5 C 13,7 C 29,0 km/h (5 Bft)
26.06.2016 16:42 17,1 C 73 % 1014,5 hPa 0,0 l/m 13,2 km/h (3 Bft) W-SW 252 0 min 109 W/m 12,2 C 14,3 C 24,1 km/h (4 Bft)
26.06.2016 16:45 16,8 C 73 % 1014,6 hPa 0,0 l/m 13,9 km/h (3 Bft) W-SW 248 0 min 97 W/m 11,9 C 13,7 C 25,7 km/h (4 Bft)
26.06.2016 16:48 16,7 C 74 % 1014,6 hPa 0,0 l/m 11,2 km/h (2 Bft) W-NW 299 0 min 146 W/m 12,0 C 14,5 C 25,7 km/h (4 Bft)
26.06.2016 16:51 16,7 C 75 % 1014,5 hPa 0,0 l/m 14,9 km/h (3 Bft) W-NW 303 0 min 102 W/m 12,2 C 13,3 C 25,7 km/h (4 Bft)
26.06.2016 16:54 16,7 C 76 % 1014,5 hPa 0,0 l/m 14,7 km/h (3 Bft) W 263 0 min 93 W/m 12,4 C 13,3 C 27,4 km/h (5 Bft)
26.06.2016 16:57 16,6 C 77 % 1014,5 hPa 0,0 l/m 11,1 km/h (2 Bft) W 260 0 min 93 W/m 12,5 C 14,4 C 20,9 km/h (4 Bft)
26.06.2016 17:00 16,6 C 78 % 1014,5 hPa 0,0 l/m 10,8 km/h (2 Bft) W-SW 250 0 min 69 W/m 12,7 C 14,6 C 19,3 km/h (3 Bft)
26.06.2016 17:03 16,4 C 78 % 1014,5 hPa 0,0 l/m 9,7 km/h (2 Bft) SW 234 0 min 53 W/m 12,6 C 14,8 C 22,5 km/h (4 Bft)
26.06.2016 17:06 16,4 C 79 % 1014,5 hPa 0,0 l/m 10,0 km/h (2 Bft) W-SW 242 0 min 62 W/m 12,7 C 14,7 C 22,5 km/h (4 Bft)
26.06.2016 17:09 16,4 C 81 % 1014,5 hPa 0,0 l/m 10,1 km/h (2 Bft) W-SW 257 0 min 98 W/m 13,1 C 14,6 C 19,3 km/h (3 Bft)
26.06.2016 17:12 16,4 C 81 % 1014,5 hPa 0,0 l/m 6,1 km/h (2 Bft) W-NW 284 0 min 139 W/m 13,1 C 16,4 C 11,3 km/h (2 Bft)
26.06.2016 17:15 16,4 C 81 % 1014,4 hPa 0,0 l/m 6,6 km/h (2 Bft) W-SW 248 0 min 179 W/m 13,1 C 16,3 C 14,5 km/h (3 Bft)
26.06.2016 17:18 16,8 C 77 % 1014,3 hPa 0,0 l/m 9,4 km/h (2 Bft) W 260 3 min 380 W/m 12,7 C 15,4 C 17,7 km/h (3 Bft)
26.06.2016 17:21 17,6 C 75 % 1014,3 hPa 0,0 l/m 9,1 km/h (2 Bft) W-NW 282 3 min 673 W/m 13,1 C 16,4 C 17,7 km/h (3 Bft)
26.06.2016 17:24 18,0 C 69 % 1014,4 hPa 0,0 l/m 13,2 km/h (3 Bft) SW 227 3 min 504 W/m 12,2 C 15,3 C 24,1 km/h (4 Bft)
26.06.2016 17:27 17,9 C 69 % 1014,3 hPa 0,0 l/m 13,2 km/h (3 Bft) W-SW 249 3 min 571 W/m 12,1 C 15,2 C 20,9 km/h (4 Bft)
26.06.2016 17:30 18,3 C 67 % 1014,4 hPa 0,0 l/m 10,4 km/h (2 Bft) W-SW 246 3 min 626 W/m 12,1 C 16,6 C 19,3 km/h (3 Bft)
26.06.2016 17:33 18,2 C 67 % 1014,3 hPa 0,0 l/m 9,1 km/h (2 Bft) W-SW 250 3 min 431 W/m 12,0 C 17,0 C 16,1 km/h (3 Bft)
26.06.2016 17:36 17,9 C 69 % 1014,4 hPa 0,0 l/m 12,3 km/h (2 Bft) SW 217 3 min 598 W/m 12,1 C 15,5 C 20,9 km/h (4 Bft)
26.06.2016 17:39 18,0 C 70 % 1014,4 hPa 0,0 l/m 9,9 km/h (2 Bft) W-SW 254 3 min 603 W/m 12,4 C 16,5 C 16,1 km/h (3 Bft)
26.06.2016 17:42 18,2 C 69 % 1014,4 hPa 0,0 l/m 8,8 km/h (2 Bft) SW 217 0 min 239 W/m 12,4 C 17,1 C 16,1 km/h (3 Bft)
26.06.2016 17:45 17,8 C 69 % 1014,3 hPa 0,0 l/m 12,3 km/h (2 Bft) SW 236 0 min 148 W/m 12,0 C 15,4 C 19,3 km/h (3 Bft)
26.06.2016 17:48 17,5 C 72 % 1014,3 hPa 0,0 l/m 9,9 km/h (2 Bft) SW 223 0 min 142 W/m 12,4 C 15,9 C 17,7 km/h (3 Bft)
26.06.2016 17:51 17,3 C 73 % 1014,3 hPa 0,0 l/m 8,6 km/h (2 Bft) S-SW 207 0 min 213 W/m 12,4 C 16,2 C 14,5 km/h (3 Bft)
26.06.2016 17:54 17,3 C 73 % 1014,3 hPa 0,0 l/m 9,0 km/h (2 Bft) S-SW 193 0 min 202 W/m 12,4 C 16,1 C 16,1 km/h (3 Bft)
26.06.2016 17:57 17,2 C 75 % 1014,3 hPa 0,0 l/m 8,9 km/h (2 Bft) SW 231 0 min 232 W/m 12,7 C 16,0 C 12,9 km/h (3 Bft)
26.06.2016 18:00 17,1 C 73 % 1014,3 hPa 0,0 l/m 12,6 km/h (3 Bft) SW 225 0 min 190 W/m 12,2 C 14,5 C 17,7 km/h (3 Bft)
26.06.2016 18:03 17,1 C 74 % 1014,3 hPa 0,0 l/m 10,2 km/h (2 Bft) W-SW 252 0 min 167 W/m 12,4 C 15,4 C 16,1 km/h (3 Bft)
26.06.2016 18:06 17,2 C 74 % 1014,2 hPa 0,0 l/m 7,4 km/h (2 Bft) S-SW 212 0 min 190 W/m 12,5 C 16,7 C 11,3 km/h (2 Bft)
26.06.2016 18:09 17,2 C 75 % 1014,2 hPa 0,0 l/m 8,9 km/h (2 Bft) SW 221 0 min 193 W/m 12,7 C 16,0 C 12,9 km/h (3 Bft)
26.06.2016 18:12 17,2 C 74 % 1014,2 hPa 0,0 l/m 12,5 km/h (2 Bft) W-SW 245 0 min 193 W/m 12,5 C 14,6 C 20,9 km/h (4 Bft)
26.06.2016 18:15 17,2 C 74 % 1014,2 hPa 0,0 l/m 10,4 km/h (2 Bft) SW 231 0 min 172 W/m 12,5 C 15,4 C 17,7 km/h (3 Bft)
26.06.2016 18:18 17,3 C 75 % 1014,1 hPa 0,0 l/m 7,2 km/h (2 Bft) W 273 0 min 172 W/m 12,8 C 16,9 C 12,9 km/h (3 Bft)
26.06.2016 18:21 17,3 C 74 % 1014,2 hPa 0,0 l/m 11,0 km/h (2 Bft) SW 225 0 min 163 W/m 12,6 C 15,3 C 19,3 km/h (3 Bft)
26.06.2016 18:24 17,3 C 73 % 1014,1 hPa 0,0 l/m 11,0 km/h (2 Bft) SW 217 0 min 178 W/m 12,4 C 15,3 C 19,3 km/h (3 Bft)
26.06.2016 18:27 17,2 C 74 % 1014,0 hPa 0,0 l/m 12,1 km/h (2 Bft) W-SW 239 0 min 200 W/m 12,5 C 14,8 C 19,3 km/h (3 Bft)
26.06.2016 18:30 17,3 C 74 % 1014,0 hPa 0,0 l/m 8,7 km/h (2 Bft) S-SW 209 0 min 169 W/m 12,6 C 16,2 C 14,5 km/h (3 Bft)
26.06.2016 18:33 17,3 C 74 % 1014,0 hPa 0,0 l/m 8,8 km/h (2 Bft) SW 217 0 min 160 W/m 12,6 C 16,2 C 14,5 km/h (3 Bft)
26.06.2016 18:36 17,2 C 75 % 1013,9 hPa 0,0 l/m 9,5 km/h (2 Bft) SW 215 0 min 160 W/m 12,7 C 15,8 C 14,5 km/h (3 Bft)
26.06.2016 18:39 17,2 C 75 % 1013,9 hPa 0,0 l/m 8,3 km/h (2 Bft) SW 217 0 min 155 W/m 12,7 C 16,3 C 14,5 km/h (3 Bft)
26.06.2016 18:42 17,2 C 76 % 1013,9 hPa 0,0 l/m 7,6 km/h (2 Bft) SW 231 0 min 153 W/m 12,9 C 16,6 C 12,9 km/h (3 Bft)
26.06.2016 18:45 17,4 C 74 % 1013,9 hPa 0,0 l/m 7,9 km/h (2 Bft) SW 214 3 min 366 W/m 12,7 C 16,7 C 16,1 km/h (3 Bft)
26.06.2016 18:48 17,7 C 75 % 1013,8 hPa 0,0 l/m 7,7 km/h (2 Bft) W-SW 243 3 min 408 W/m 13,2 C 17,1 C 12,9 km/h (3 Bft)
26.06.2016 18:51 18,0 C 73 % 1013,9 hPa 0,0 l/m 8,4 km/h (2 Bft) S-SW 213 3 min 366 W/m 13,1 C 17,1 C 14,5 km/h (3 Bft)
26.06.2016 18:54 18,0 C 72 % 1013,8 hPa 0,0 l/m 9,2 km/h (2 Bft) SW 232 3 min 357 W/m 12,9 C 16,7 C 14,5 km/h (3 Bft)
26.06.2016 18:57 18,0 C 72 % 1013,9 hPa 0,0 l/m 8,6 km/h (2 Bft) SW 217 3 min 350 W/m 12,9 C 17,0 C 12,9 km/h (3 Bft)
26.06.2016 19:00 18,2 C 70 % 1014,0 hPa 0,0 l/m 9,7 km/h (2 Bft) W 261 3 min 357 W/m 12,6 C 16,8 C 17,7 km/h (3 Bft)
26.06.2016 19:03 18,5 C 68 % 1014,0 hPa 0,0 l/m 10,7 km/h (2 Bft) W 263 3 min 343 W/m 12,5 C 16,7 C 17,7 km/h (3 Bft)
26.06.2016 19:06 18,5 C 67 % 1014,0 hPa 0,0 l/m 11,9 km/h (2 Bft) SW 217 3 min 341 W/m 12,3 C 16,3 C 19,3 km/h (3 Bft)
26.06.2016 19:09 18,3 C 68 % 1014,1 hPa 0,0 l/m 12,9 km/h (3 Bft) S-SW 211 3 min 341 W/m 12,3 C 15,8 C 19,3 km/h (3 Bft)
26.06.2016 19:12 18,2 C 68 % 1014,1 hPa 0,0 l/m 11,0 km/h (2 Bft) W-SW 254 3 min 320 W/m 12,2 C 16,3 C 19,3 km/h (3 Bft)
26.06.2016 19:15 18,3 C 68 % 1014,0 hPa 0,0 l/m 11,9 km/h (2 Bft) W 264 3 min 311 W/m 12,3 C 16,1 C 19,3 km/h (3 Bft)
26.06.2016 19:18 18,3 C 69 % 1014,0 hPa 0,0 l/m 8,4 km/h (2 Bft) SW 235 3 min 295 W/m 12,5 C 17,4 C 14,5 km/h (3 Bft)
26.06.2016 19:21 18,2 C 69 % 1014,0 hPa 0,0 l/m 6,7 km/h (2 Bft) W 263 3 min 292 W/m 12,4 C 18,1 C 14,5 km/h (3 Bft)
26.06.2016 19:24 18,2 C 67 % 1014,0 hPa 0,0 l/m 10,4 km/h (2 Bft) W-SW 248 3 min 285 W/m 12,0 C 16,5 C 17,7 km/h (3 Bft)
26.06.2016 19:27 18,1 C 68 % 1014,0 hPa 0,0 l/m 12,0 km/h (2 Bft) W-SW 246 3 min 279 W/m 12,1 C 15,8 C 20,9 km/h (4 Bft)
26.06.2016 19:30 17,9 C 69 % 1014,0 hPa 0,0 l/m 10,9 km/h (2 Bft) S-SW 202 3 min 269 W/m 12,1 C 16,0 C 16,1 km/h (3 Bft)
26.06.2016 19:33 17,8 C 70 % 1013,9 hPa 0,0 l/m 11,5 km/h (2 Bft) SW 219 3 min 258 W/m 12,3 C 15,7 C 19,3 km/h (3 Bft)
26.06.2016 19:36 17,7 C 70 % 1013,9 hPa 0,0 l/m 13,4 km/h (3 Bft) SW 223 3 min 253 W/m 12,2 C 14,9 C 19,3 km/h (3 Bft)
26.06.2016 19:39 17,6 C 71 % 1013,9 hPa 0,0 l/m 8,9 km/h (2 Bft) W-SW 246 3 min 241 W/m 12,3 C 16,4 C 16,1 km/h (3 Bft)
26.06.2016 19:42 17,7 C 72 % 1013,9 hPa 0,0 l/m 7,9 km/h (2 Bft) S-SW 198 3 min 230 W/m 12,6 C 17,0 C 14,5 km/h (3 Bft)
26.06.2016 19:45 17,7 C 72 % 1013,9 hPa 0,0 l/m 10,5 km/h (2 Bft) S-SW 211 3 min 223 W/m 12,6 C 15,9 C 19,3 km/h (3 Bft)
26.06.2016 19:48 17,8 C 73 % 1013,9 hPa 0,0 l/m 9,3 km/h (2 Bft) W 262 3 min 209 W/m 12,9 C 16,5 C 14,5 km/h (3 Bft)
26.06.2016 19:51 17,8 C 73 % 1013,9 hPa 0,0 l/m 9,9 km/h (2 Bft) SW 225 3 min 200 W/m 12,9 C 16,2 C 14,5 km/h (3 Bft)
26.06.2016 19:54 17,7 C 73 % 1013,9 hPa 0,0 l/m 8,9 km/h (2 Bft) W-SW 247 3 min 190 W/m 12,8 C 16,5 C 16,1 km/h (3 Bft)
26.06.2016 19:57 17,7 C 74 % 1013,9 hPa 0,0 l/m 9,5 km/h (2 Bft) S-SW 198 0 min 105 W/m 13,0 C 16,3 C 16,1 km/h (3 Bft)
26.06.2016 20:00 17,6 C 74 % 1013,8 hPa 0,0 l/m 10,7 km/h (2 Bft) SW 221 0 min 28 W/m 12,9 C 15,7 C 16,1 km/h (3 Bft)
26.06.2016 20:03 17,3 C 75 % 1013,9 hPa 0,0 l/m 9,6 km/h (2 Bft) SW 230 0 min 19 W/m 12,8 C 15,8 C 16,1 km/h (3 Bft)
26.06.2016 20:06 17,1 C 75 % 1013,8 hPa 0,0 l/m 8,2 km/h (2 Bft) SW 221 0 min 14 W/m 12,6 C 16,2 C 12,9 km/h (3 Bft)
26.06.2016 20:09 16,9 C 76 % 1013,9 hPa 0,0 l/m 9,9 km/h (2 Bft) SW 223 0 min 12 W/m 12,6 C 15,3 C 19,3 km/h (3 Bft)
26.06.2016 20:12 16,8 C 77 % 1013,9 hPa 0,0 l/m 8,2 km/h (2 Bft) SW 225 0 min 12 W/m 12,7 C 15,9 C 12,9 km/h (3 Bft)
26.06.2016 20:15 16,6 C 78 % 1013,9 hPa 0,0 l/m 6,3 km/h (2 Bft) S-SW 213 0 min 12 W/m 12,7 C 16,6 C 9,7 km/h (2 Bft)
26.06.2016 20:18 16,5 C 79 % 1014,0 hPa 0,0 l/m 5,3 km/h (1 Bft) S-SW 195 0 min 11 W/m 12,8 C 16,5 C 9,7 km/h (2 Bft)
26.06.2016 20:21 16,4 C 79 % 1014,0 hPa 0,0 l/m 6,3 km/h (2 Bft) SW 215 0 min 11 W/m 12,7 C 16,4 C 9,7 km/h (2 Bft)
26.06.2016 20:24 16,3 C 80 % 1013,9 hPa 0,0 l/m 4,9 km/h (1 Bft) SW 220 0 min 9 W/m 12,8 C 16,3 C 8,0 km/h (2 Bft)
26.06.2016 20:27 16,3 C 80 % 1013,9 hPa 0,0 l/m 4,0 km/h (1 Bft) SW 219 0 min 9 W/m 12,8 C 16,3 C 8,0 km/h (2 Bft)
26.06.2016 20:30 16,2 C 80 % 1014,0 hPa 0,0 l/m 4,2 km/h (1 Bft) SW 217 0 min 9 W/m 12,7 C 16,2 C 8,0 km/h (2 Bft)
26.06.2016 20:33 16,1 C 81 % 1014,0 hPa 0,0 l/m 4,2 km/h (1 Bft) S-SW 212 0 min 9 W/m 12,8 C 16,1 C 6,4 km/h (2 Bft)
26.06.2016 20:36 16,1 C 81 % 1014,0 hPa 0,0 l/m 4,1 km/h (1 Bft) SW 214 0 min 7 W/m 12,8 C 16,1 C 6,4 km/h (2 Bft)
26.06.2016 20:39 16,0 C 82 % 1014,1 hPa 0,0 l/m 4,9 km/h (1 Bft) W-SW 237 0 min 7 W/m 12,9 C 16,0 C 8,0 km/h (2 Bft)
26.06.2016 20:42 16,1 C 82 % 1014,1 hPa 0,0 l/m 4,5 km/h (1 Bft) SW 215 0 min 9 W/m 13,0 C 16,1 C 9,7 km/h (2 Bft)
26.06.2016 20:45 16,1 C 80 % 1014,1 hPa 0,0 l/m 8,0 km/h (2 Bft) SW 234 0 min 28 W/m 12,6 C 15,3 C 14,5 km/h (3 Bft)
26.06.2016 20:48 16,1 C 80 % 1014,1 hPa 0,0 l/m 6,0 km/h (2 Bft) SW 219 0 min 51 W/m 12,6 C 16,1 C 9,7 km/h (2 Bft)
26.06.2016 20:51 16,0 C 81 % 1014,1 hPa 0,0 l/m 5,9 km/h (2 Bft) SW 229 0 min 35 W/m 12,7 C 16,0 C 9,7 km/h (2 Bft)
26.06.2016 20:54 15,9 C 80 % 1014,1 hPa 0,0 l/m 5,1 km/h (1 Bft) S-SW 208 0 min 51 W/m 12,5 C 15,9 C 8,0 km/h (2 Bft)
26.06.2016 20:57 15,9 C 80 % 1014,1 hPa 0,0 l/m 3,1 km/h (1 Bft) SW 227 0 min 53 W/m 12,5 C 15,9 C 9,7 km/h (2 Bft)
26.06.2016 21:00 15,9 C 80 % 1014,0 hPa 0,0 l/m 4,1 km/h (1 Bft) SW 229 0 min 26 W/m 12,5 C 15,9 C 8,0 km/h (2 Bft)
26.06.2016 21:03 15,9 C 80 % 1014,0 hPa 0,0 l/m 2,0 km/h (1 Bft) SW 229 0 min 18 W/m 12,5 C 15,9 C 3,2 km/h (1 Bft)
26.06.2016 21:06 15,9 C 80 % 1014,1 hPa 0,0 l/m 4,2 km/h (1 Bft) SW 227 0 min 18 W/m 12,5 C 15,9 C 6,4 km/h (2 Bft)
26.06.2016 21:09 15,9 C 80 % 1014,0 hPa 0,0 l/m 4,2 km/h (1 Bft) SW 227 0 min 16 W/m 12,5 C 15,9 C 4,8 km/h (1 Bft)
26.06.2016 21:12 15,8 C 80 % 1014,1 hPa 0,0 l/m 3,6 km/h (1 Bft) SW 227 0 min 12 W/m 12,4 C 15,8 C 8,0 km/h (2 Bft)
26.06.2016 21:15 15,8 C 80 % 1014,1 hPa 0,0 l/m 2,5 km/h (1 Bft) SW 227 0 min 11 W/m 12,4 C 15,8 C 6,4 km/h (2 Bft)
26.06.2016 21:18 15,8 C 80 % 1014,2 hPa 0,0 l/m 2,9 km/h (1 Bft) SW 221 0 min 9 W/m 12,4 C 15,8 C 6,4 km/h (2 Bft)
26.06.2016 21:21 15,8 C 79 % 1014,2 hPa 0,0 l/m 3,9 km/h (1 Bft) SW 232 0 min 7 W/m 12,2 C 15,8 C 6,4 km/h (2 Bft)
26.06.2016 21:24 15,7 C 79 % 1014,1 hPa 0,0 l/m 3,7 km/h (1 Bft) SW 225 0 min 7 W/m 12,1 C 15,7 C 6,4 km/h (2 Bft)
26.06.2016 21:27 15,6 C 79 % 1014,1 hPa 0,0 l/m 3,5 km/h (1 Bft) SW 227 0 min 7 W/m 12,0 C 15,6 C 6,4 km/h (2 Bft)
26.06.2016 21:30 15,6 C 78 % 1014,2 hPa 0,0 l/m 2,9 km/h (1 Bft) SW 227 0 min 5 W/m 11,8 C 15,6 C 4,8 km/h (1 Bft)
26.06.2016 21:33 15,4 C 79 % 1014,2 hPa 0,0 l/m 2,7 km/h (1 Bft) SW 227 0 min 5 W/m 11,8 C 15,4 C 4,8 km/h (1 Bft)
26.06.2016 21:36 15,4 C 79 % 1014,2 hPa 0,0 l/m 2,6 km/h (1 Bft) SW 227 0 min 5 W/m 11,8 C 15,4 C 4,8 km/h (1 Bft)
26.06.2016 21:39 15,4 C 79 % 1014,3 hPa 0,0 l/m 2,8 km/h (1 Bft) SW 227 0 min 5 W/m 11,8 C 15,4 C 4,8 km/h (1 Bft)
26.06.2016 21:42 15,3 C 80 % 1014,3 hPa 0,0 l/m 2,3 km/h (1 Bft) SW 227 0 min 0 W/m 11,9 C 15,3 C 3,2 km/h (1 Bft)
26.06.2016 21:45 15,2 C 80 % 1014,3 hPa 0,0 l/m 2,0 km/h (1 Bft) SW 227 0 min 0 W/m 11,8 C 15,2 C 3,2 km/h (1 Bft)
26.06.2016 21:48 15,1 C 81 % 1014,3 hPa 0,0 l/m 1,8 km/h (1 Bft) SW 227 0 min 0 W/m 11,9 C 15,1 C 3,2 km/h (1 Bft)
26.06.2016 21:51 15,0 C 81 % 1014,4 hPa 0,0 l/m 1,0 km/h (0 Bft) SW 227 0 min 0 W/m 11,8 C 15,0 C 3,2 km/h (1 Bft)
26.06.2016 21:54 14,9 C 82 % 1014,4 hPa 0,0 l/m 0,3 km/h (0 Bft) SW 227 0 min 0 W/m 11,9 C 14,9 C 1,6 km/h (1 Bft)
26.06.2016 21:57 14,8 C 83 % 1014,5 hPa 0,0 l/m 0,3 km/h (0 Bft) SW 227 0 min 0 W/m 11,9 C 14,8 C 1,6 km/h (1 Bft)
26.06.2016 22:00 14,9 C 83 % 1014,5 hPa 0,0 l/m 0,0 km/h (0 Bft) SW 227 0 min 0 W/m 12,0 C 14,9 C 1,6 km/h (1 Bft)
26.06.2016 22:03 14,9 C 83 % 1014,5 hPa 0,0 l/m 0,2 km/h (0 Bft) SW 227 0 min 0 W/m 12,0 C 14,9 C 1,6 km/h (1 Bft)
26.06.2016 22:06 14,9 C 83 % 1014,5 hPa 0,0 l/m 0,6 km/h (0 Bft) SW 227 0 min 0 W/m 12,0 C 14,9 C 1,6 km/h (1 Bft)
26.06.2016 22:09 15,0 C 82 % 1014,5 hPa 0,0 l/m 1,0 km/h (0 Bft) SW 227 0 min 0 W/m 12,0 C 15,0 C 3,2 km/h (1 Bft)
26.06.2016 22:12 14,9 C 82 % 1014,4 hPa 0,0 l/m 1,9 km/h (1 Bft) SW 227 0 min 0 W/m 11,9 C 14,9 C 3,2 km/h (1 Bft)
26.06.2016 22:15 14,8 C 83 % 1014,4 hPa 0,0 l/m 0,1 km/h (0 Bft) SW 227 0 min 0 W/m 11,9 C 14,8 C 1,6 km/h (1 Bft)
26.06.2016 22:18 14,7 C 83 % 1014,5 hPa 0,0 l/m 2,1 km/h (1 Bft) SW 227 0 min 0 W/m 11,8 C 14,7 C 3,2 km/h (1 Bft)
26.06.2016 22:21 14,7 C 84 % 1014,5 hPa 0,0 l/m 1,2 km/h (1 Bft) SW 227 0 min 0 W/m 12,0 C 14,7 C 3,2 km/h (1 Bft)
26.06.2016 22:24 14,8 C 84 % 1014,5 hPa 0,0 l/m 0,4 km/h (0 Bft) SW 227 0 min 0 W/m 12,1 C 14,8 C 1,6 km/h (1 Bft)
26.06.2016 22:27 14,8 C 84 % 1014,5 hPa 0,0 l/m 0,3 km/h (0 Bft) SW 227 0 min 0 W/m 12,1 C 14,8 C 1,6 km/h (1 Bft)
26.06.2016 22:30 14,9 C 84 % 1014,5 hPa 0,0 l/m 0,7 km/h (0 Bft) SW 227 0 min 0 W/m 12,2 C 14,9 C 3,2 km/h (1 Bft)
26.06.2016 22:33 15,1 C 84 % 1014,6 hPa 0,0 l/m 1,4 km/h (1 Bft) SW 227 0 min 0 W/m 12,4 C 15,1 C 3,2 km/h (1 Bft)
26.06.2016 22:36 15,2 C 84 % 1014,6 hPa 0,0 l/m 1,3 km/h (1 Bft) SW 227 0 min 0 W/m 12,5 C 15,2 C 3,2 km/h (1 Bft)
26.06.2016 22:39 15,2 C 84 % 1014,7 hPa 0,0 l/m 3,8 km/h (1 Bft) SW 227 0 min 0 W/m 12,5 C 15,2 C 4,8 km/h (1 Bft)
26.06.2016 22:42 15,2 C 85 % 1014,8 hPa 0,0 l/m 4,2 km/h (1 Bft) SW 227 0 min 0 W/m 12,7 C 15,2 C 6,4 km/h (2 Bft)
26.06.2016 22:45 15,1 C 87 % 1014,7 hPa 0,0 l/m 3,9 km/h (1 Bft) SW 220 0 min 0 W/m 13,0 C 15,1 C 6,4 km/h (2 Bft)
26.06.2016 22:48 15,2 C 88 % 1014,8 hPa 0,0 l/m 3,8 km/h (1 Bft) SW 224 0 min 0 W/m 13,2 C 15,2 C 11,3 km/h (2 Bft)
26.06.2016 22:51 15,3 C 89 % 1014,7 hPa 0,0 l/m 4,6 km/h (1 Bft) W-SW 254 0 min 0 W/m 13,5 C 15,3 C 12,9 km/h (3 Bft)
26.06.2016 22:54 15,3 C 89 % 1014,7 hPa 0,0 l/m 6,3 km/h (2 Bft) W 270 0 min 0 W/m 13,5 C 15,3 C 16,1 km/h (3 Bft)
26.06.2016 22:57 15,2 C 88 % 1014,8 hPa 0,0 l/m 6,9 km/h (2 Bft) W-NW 286 0 min 0 W/m 13,2 C 14,9 C 11,3 km/h (2 Bft)
26.06.2016 23:00 15,2 C 87 % 1014,8 hPa 0,0 l/m 7,4 km/h (2 Bft) SW 225 0 min 0 W/m 13,0 C 14,6 C 12,9 km/h (3 Bft)
26.06.2016 23:03 15,2 C 88 % 1014,8 hPa 0,0 l/m 7,7 km/h (2 Bft) W 276 0 min 0 W/m 13,2 C 14,5 C 14,5 km/h (3 Bft)
26.06.2016 23:06 15,2 C 88 % 1014,8 hPa 0,0 l/m 7,4 km/h (2 Bft) SW 230 0 min 0 W/m 13,2 C 14,6 C 11,3 km/h (2 Bft)
26.06.2016 23:09 15,2 C 87 % 1014,8 hPa 0,0 l/m 5,0 km/h (1 Bft) W 279 0 min 0 W/m 13,0 C 15,2 C 11,3 km/h (2 Bft)
26.06.2016 23:12 15,2 C 87 % 1014,7 hPa 0,0 l/m 5,2 km/h (1 Bft) W 267 0 min 0 W/m 13,0 C 15,2 C 11,3 km/h (2 Bft)
26.06.2016 23:15 15,2 C 88 % 1014,8 hPa 0,0 l/m 5,3 km/h (1 Bft) W 265 0 min 0 W/m 13,2 C 15,2 C 9,7 km/h (2 Bft)
26.06.2016 23:18 15,2 C 88 % 1014,8 hPa 0,0 l/m 3,8 km/h (1 Bft) W-SW 255 0 min 0 W/m 13,2 C 15,2 C 9,7 km/h (2 Bft)
26.06.2016 23:21 15,1 C 88 % 1014,8 hPa 0,0 l/m 5,7 km/h (2 Bft) W-SW 254 0 min 0 W/m 13,1 C 15,1 C 12,9 km/h (3 Bft)
26.06.2016 23:24 15,1 C 88 % 1014,8 hPa 0,0 l/m 3,8 km/h (1 Bft) W-SW 247 0 min 0 W/m 13,1 C 15,1 C 6,4 km/h (2 Bft)
26.06.2016 23:27 15,1 C 89 % 1014,8 hPa 0,0 l/m 2,6 km/h (1 Bft) W-SW 253 0 min 0 W/m 13,3 C 15,1 C 4,8 km/h (1 Bft)
26.06.2016 23:30 15,0 C 88 % 1014,7 hPa 0,0 l/m 4,2 km/h (1 Bft) SW 217 0 min 0 W/m 13,0 C 15,0 C 6,4 km/h (2 Bft)
26.06.2016 23:33 14,8 C 88 % 1014,7 hPa 0,0 l/m 3,2 km/h (1 Bft) SW 217 0 min 0 W/m 12,8 C 14,8 C 4,8 km/h (1 Bft)
26.06.2016 23:36 14,7 C 88 % 1014,7 hPa 0,0 l/m 3,1 km/h (1 Bft) SW 217 0 min 0 W/m 12,7 C 14,7 C 4,8 km/h (1 Bft)
26.06.2016 23:39 14,5 C 89 % 1014,8 hPa 0,0 l/m 3,2 km/h (1 Bft) SW 215 0 min 0 W/m 12,7 C 14,5 C 4,8 km/h (1 Bft)
26.06.2016 23:42 14,4 C 89 % 1014,9 hPa 0,0 l/m 3,6 km/h (1 Bft) SW 215 0 min 0 W/m 12,6 C 14,4 C 4,8 km/h (1 Bft)
26.06.2016 23:45 14,3 C 89 % 1014,9 hPa 0,0 l/m 2,4 km/h (1 Bft) SW 215 0 min 0 W/m 12,5 C 14,3 C 4,8 km/h (1 Bft)
26.06.2016 23:48 14,2 C 90 % 1014,9 hPa 0,0 l/m 2,6 km/h (1 Bft) SW 215 0 min 0 W/m 12,6 C 14,2 C 4,8 km/h (1 Bft)
26.06.2016 23:51 14,2 C 90 % 1014,8 hPa 0,0 l/m 2,1 km/h (1 Bft) SW 215 0 min 0 W/m 12,6 C 14,2 C 4,8 km/h (1 Bft)
26.06.2016 23:54 14,2 C 90 % 1014,9 hPa 0,0 l/m 0,8 km/h (0 Bft) SW 215 0 min 0 W/m 12,6 C 14,2 C 1,6 km/h (1 Bft)
26.06.2016 23:57 14,2 C 90 % 1014,8 hPa 0,0 l/m 3,0 km/h (1 Bft) SW 223 0 min 0 W/m 12,6 C 14,2 C 4,8 km/h (1 Bft)
_ Min-Zeit 23:48 15:12 00:00 - 22:00 - - - - 15:57 07:33 21:54
Minimum _ 14,2 C 58 % 1011,3 hPa - 0,0 km/h (0 Bft) - - - - 11,6 C 9,9 C 1,6 km/h (1 Bft)
_ Max-Zeit 15:12 00:00 23:42 00:03 09:09 - - 11:03 13:54 10:51 15:09 14:06
Maximum _ 21,1 C 96 % 1014,9 hPa 0,2 l/m 20,1 km/h
S-SW (4 Bft)
- - 3 min 1025 W/m 14,2 C 19,3 C 32,2 km/h
SW (5 Bft)
Durchschnitt _ 16,3 C 82 % 1013,2 hPa #0,8 l/m 10,8 km/h (2 Bft) SW - #3:33 h 226 W/m 13,1 C 14,3 C 18,4 km/h (3 Bft)
2016 Cux-Wetter.de -Die Nutzung der Wetterdaten nur mit ausdrcklicher Genehmigung